Wetterdaten: Montag, 13.05.2019
Datum Zeit Temp. Aussen Temp. o. S. +5cm Feuchte Auss Luftdruck Regen Sonnenschein Regendauer Solar Windben Empfang
13.05.2019 00:00 9,0 C 7,2 C 7,2 C 72 % 1035,1 hPa 0,0 l/m 0 min 0 min 0 W/m 6,4 km/h (2 Bft) 97,87 %
13.05.2019 00:02 8,9 C 7,2 C 6,7 C 72 % 1035,1 hPa 0,0 l/m 0 min 0 min 0 W/m 3,2 km/h (1 Bft) 95,45 %
13.05.2019 00:04 8,9 C 7,2 C 6,7 C 72 % 1035,0 hPa 0,0 l/m 0 min 0 min 0 W/m 6,4 km/h (2 Bft) 95,74 %
13.05.2019 00:07 8,8 C 7,2 C 6,7 C 72 % 1035,2 hPa 0,0 l/m 0 min 0 min 0 W/m 6,4 km/h (2 Bft) 95,74 %
13.05.2019 00:08 8,8 C 7,2 C 6,7 C 72 % 1035,2 hPa 0,0 l/m 0 min 0 min 0 W/m 6,4 km/h (2 Bft) 97,87 %
13.05.2019 00:10 8,8 C 7,2 C 6,7 C 72 % 1035,2 hPa 0,0 l/m 0 min 0 min 0 W/m 3,2 km/h (1 Bft) 97,83 %
13.05.2019 00:12 8,7 C 7,2 C 6,7 C 72 % 1035,2 hPa 0,0 l/m 0 min 0 min 0 W/m 6,4 km/h (2 Bft) 95,74 %
13.05.2019 00:14 8,7 C 7,2 C 6,7 C 72 % 1035,2 hPa 0,0 l/m 0 min 0 min 0 W/m 3,2 km/h (1 Bft) 97,87 %
13.05.2019 00:16 8,7 C 7,2 C 6,7 C 72 % 1035,3 hPa 0,0 l/m 0 min 0 min 0 W/m 3,2 km/h (1 Bft) 97,87 %
13.05.2019 00:18 8,7 C 7,2 C 6,7 C 72 % 1035,3 hPa 0,0 l/m 0 min 0 min 0 W/m 6,4 km/h (2 Bft) 97,87 %
13.05.2019 00:20 8,6 C 7,2 C 6,7 C 73 % 1035,3 hPa 0,0 l/m 0 min 0 min 0 W/m 3,2 km/h (1 Bft) 97,83 %
13.05.2019 00:22 8,6 C 6,7 C 6,7 C 73 % 1035,3 hPa 0,0 l/m 0 min 0 min 0 W/m 6,4 km/h (2 Bft) 97,87 %
13.05.2019 00:24 8,6 C 6,7 C 6,1 C 73 % 1035,3 hPa 0,0 l/m 0 min 0 min 0 W/m 3,2 km/h (1 Bft) 97,87 %
13.05.2019 00:26 8,5 C 6,7 C 6,1 C 73 % 1035,3 hPa 0,0 l/m 0 min 0 min 0 W/m 6,4 km/h (2 Bft) 97,87 %
13.05.2019 00:28 8,4 C 7,2 C 6,7 C 73 % 1035,3 hPa 0,0 l/m 0 min 0 min 0 W/m 6,4 km/h (2 Bft) 95,74 %
13.05.2019 00:30 8,4 C 6,7 C 6,7 C 73 % 1035,4 hPa 0,0 l/m 0 min 0 min 0 W/m 6,4 km/h (2 Bft) 97,87 %
13.05.2019 00:32 8,3 C 6,7 C 6,7 C 73 % 1035,4 hPa 0,0 l/m 0 min 0 min 0 W/m 6,4 km/h (2 Bft) 95,74 %
13.05.2019 00:34 8,3 C 6,7 C 6,1 C 73 % 1035,4 hPa 0,0 l/m 0 min 0 min 0 W/m 3,2 km/h (1 Bft) 97,83 %
13.05.2019 00:36 8,3 C 6,7 C 6,1 C 73 % 1035,5 hPa 0,0 l/m 0 min 0 min 0 W/m 3,2 km/h (1 Bft) 97,87 %
13.05.2019 00:38 8,2 C 6,7 C 6,1 C 73 % 1035,4 hPa 0,0 l/m 0 min 0 min 0 W/m 6,4 km/h (2 Bft) 97,87 %
13.05.2019 00:40 8,2 C 6,7 C 6,1 C 73 % 1035,5 hPa 0,0 l/m 0 min 0 min 0 W/m 6,4 km/h (2 Bft) 97,87 %
13.05.2019 00:42 8,2 C 6,7 C 6,1 C 73 % 1035,5 hPa 0,0 l/m 0 min 0 min 0 W/m 3,2 km/h (1 Bft) 95,74 %
13.05.2019 00:44 8,2 C 6,7 C 6,1 C 74 % 1035,5 hPa 0,0 l/m 0 min 0 min 0 W/m 3,2 km/h (1 Bft) 100,00 %
13.05.2019 00:46 8,1 C 6,7 C 6,1 C 74 % 1035,6 hPa 0,0 l/m 0 min 0 min 0 W/m 6,4 km/h (2 Bft) 97,87 %
13.05.2019 00:48 8,1 C 6,7 C 6,1 C 74 % 1035,6 hPa 0,0 l/m 0 min 0 min 0 W/m 6,4 km/h (2 Bft) 97,87 %
13.05.2019 00:50 8,0 C 6,7 C 6,1 C 74 % 1035,6 hPa 0,0 l/m 0 min 0 min 0 W/m 6,4 km/h (2 Bft) 97,87 %
13.05.2019 00:52 8,0 C 6,7 C 6,1 C 74 % 1035,6 hPa 0,0 l/m 0 min 0 min 0 W/m 3,2 km/h (1 Bft) 97,87 %
13.05.2019 00:54 7,9 C 6,7 C 6,1 C 74 % 1035,6 hPa 0,0 l/m 0 min 0 min 0 W/m 6,4 km/h (2 Bft) 95,74 %
13.05.2019 00:56 7,9 C 6,7 C 6,1 C 74 % 1035,7 hPa 0,0 l/m 0 min 0 min 0 W/m 3,2 km/h (1 Bft) 95,65 %
13.05.2019 00:58 7,9 C 6,1 C 5,6 C 74 % 1035,7 hPa 0,0 l/m 0 min 0 min 0 W/m 6,4 km/h (2 Bft) 97,87 %
13.05.2019 01:00 7,8 C 6,1 C 5,6 C 74 % 1035,7 hPa 0,0 l/m 0 min 0 min 0 W/m 6,4 km/h (2 Bft) 97,87 %
13.05.2019 01:02 7,8 C 6,1 C 5,6 C 74 % 1035,7 hPa 0,0 l/m 0 min 0 min 0 W/m 3,2 km/h (1 Bft) 95,74 %
13.05.2019 01:04 7,8 C 6,1 C 5,6 C 74 % 1035,7 hPa 0,0 l/m 0 min 0 min 0 W/m 3,2 km/h (1 Bft) 97,87 %
13.05.2019 01:06 7,7 C 6,1 C 5,6 C 74 % 1035,6 hPa 0,0 l/m 0 min 0 min 0 W/m 3,2 km/h (1 Bft) 95,74 %
13.05.2019 01:08 7,7 C 6,1 C 5,6 C 74 % 1035,7 hPa 0,0 l/m 0 min 0 min 0 W/m 9,7 km/h (2 Bft) 95,65 %
13.05.2019 01:10 7,7 C 6,1 C 5,6 C 74 % 1035,8 hPa 0,0 l/m 0 min 0 min 0 W/m 3,2 km/h (1 Bft) 97,87 %
13.05.2019 01:12 7,6 C 6,1 C 5,6 C 74 % 1035,7 hPa 0,0 l/m 0 min 0 min 0 W/m 6,4 km/h (2 Bft) 100,00 %
13.05.2019 01:14 7,6 C 6,1 C 5,6 C 74 % 1035,8 hPa 0,0 l/m 0 min 0 min 0 W/m 6,4 km/h (2 Bft) 100,00 %
13.05.2019 01:16 7,6 C 5,6 C 5,6 C 74 % 1035,8 hPa 0,0 l/m 0 min 0 min 0 W/m 3,2 km/h (1 Bft) 97,87 %
13.05.2019 01:18 7,6 C 5,6 C 5,0 C 75 % 1035,8 hPa 0,0 l/m 0 min 0 min 0 W/m 3,2 km/h (1 Bft) 95,74 %
13.05.2019 01:20 7,5 C 5,6 C 5,0 C 75 % 1035,7 hPa 0,0 l/m 0 min 0 min 0 W/m 3,2 km/h (1 Bft) 97,83 %
13.05.2019 01:22 7,5 C 5,6 C 5,0 C 75 % 1035,7 hPa 0,0 l/m 0 min 0 min 0 W/m 6,4 km/h (2 Bft) 93,62 %
13.05.2019 01:24 7,4 C 5,6 C 5,0 C 75 % 1035,8 hPa 0,0 l/m 0 min 0 min 0 W/m 6,4 km/h (2 Bft) 97,87 %
13.05.2019 01:26 7,4 C 5,6 C 5,0 C 75 % 1035,8 hPa 0,0 l/m 0 min 0 min 0 W/m 0,0 km/h (0 Bft) 97,87 %
13.05.2019 01:28 7,3 C 5,6 C 5,0 C 75 % 1035,8 hPa 0,0 l/m 0 min 0 min 0 W/m 3,2 km/h (1 Bft) 97,87 %
13.05.2019 01:30 7,3 C 5,6 C 5,0 C 75 % 1035,7 hPa 0,0 l/m 0 min 0 min 0 W/m 0,0 km/h (0 Bft) 97,83 %
13.05.2019 01:32 7,3 C 5,6 C 5,0 C 75 % 1035,7 hPa 0,0 l/m 0 min 0 min 0 W/m 3,2 km/h (1 Bft) 95,74 %
13.05.2019 01:34 7,2 C 5,0 C 5,0 C 75 % 1035,8 hPa 0,0 l/m 0 min 0 min 0 W/m 3,2 km/h (1 Bft) 97,87 %
13.05.2019 01:36 7,2 C 5,6 C 5,0 C 75 % 1035,9 hPa 0,0 l/m 0 min 0 min 0 W/m 3,2 km/h (1 Bft) 97,87 %
13.05.2019 01:38 7,2 C 5,6 C 4,4 C 75 % 1035,9 hPa 0,0 l/m 0 min 0 min 0 W/m 3,2 km/h (1 Bft) 97,87 %
13.05.2019 01:40 7,1 C 5,0 C 4,4 C 75 % 1035,8 hPa 0,0 l/m 0 min 0 min 0 W/m 3,2 km/h (1 Bft) 97,87 %
13.05.2019 01:42 7,1 C 5,0 C 4,4 C 75 % 1035,9 hPa 0,0 l/m 0 min 0 min 0 W/m 3,2 km/h (1 Bft) 100,00 %
13.05.2019 01:44 7,1 C 5,0 C 4,4 C 76 % 1035,9 hPa 0,0 l/m 0 min 0 min 0 W/m 3,2 km/h (1 Bft) 95,74 %
13.05.2019 01:46 7,0 C 5,0 C 4,4 C 75 % 1035,9 hPa 0,0 l/m 0 min 0 min 0 W/m 3,2 km/h (1 Bft) 93,62 %
13.05.2019 01:48 6,9 C 5,0 C 4,4 C 76 % 1035,9 hPa 0,0 l/m 0 min 0 min 0 W/m 9,7 km/h (2 Bft) 95,74 %
13.05.2019 01:50 6,9 C 5,6 C 4,4 C 76 % 1035,9 hPa 0,0 l/m 0 min 0 min 0 W/m 6,4 km/h (2 Bft) 93,62 %
13.05.2019 01:52 6,9 C 5,6 C 5,0 C 76 % 1035,8 hPa 0,0 l/m 0 min 0 min 0 W/m 3,2 km/h (1 Bft) 97,87 %
13.05.2019 01:54 6,8 C 5,6 C 5,0 C 76 % 1035,9 hPa 0,0 l/m 0 min 0 min 0 W/m 6,4 km/h (2 Bft) 97,83 %
13.05.2019 01:56 6,8 C 5,6 C 5,0 C 77 % 1035,9 hPa 0,0 l/m 0 min 0 min 0 W/m 6,4 km/h (2 Bft) 97,87 %
13.05.2019 01:58 6,8 C 5,6 C 5,0 C 77 % 1035,9 hPa 0,0 l/m 0 min 0 min 0 W/m 6,4 km/h (2 Bft) 97,87 %
13.05.2019 02:00 6,7 C 5,6 C 5,0 C 77 % 1035,9 hPa 0,0 l/m 0 min 0 min 0 W/m 6,4 km/h (2 Bft) 97,87 %
13.05.2019 02:02 6,7 C 5,6 C 5,0 C 78 % 1035,9 hPa 0,0 l/m 0 min 0 min 0 W/m 6,4 km/h (2 Bft) 95,74 %
13.05.2019 02:04 6,7 C 5,6 C 5,0 C 78 % 1035,8 hPa 0,0 l/m 0 min 0 min 0 W/m 3,2 km/h (1 Bft) 95,74 %
13.05.2019 02:06 6,7 C 5,6 C 5,0 C 78 % 1035,9 hPa 0,0 l/m 0 min 0 min 0 W/m 6,4 km/h (2 Bft) 97,83 %
13.05.2019 02:08 6,6 C 5,6 C 5,0 C 78 % 1036,0 hPa 0,0 l/m 0 min 0 min 0 W/m 3,2 km/h (1 Bft) 97,87 %
13.05.2019 02:10 6,6 C 5,6 C 5,0 C 79 % 1035,9 hPa 0,0 l/m 0 min 0 min 0 W/m 3,2 km/h (1 Bft) 97,87 %
13.05.2019 02:12 6,6 C 5,6 C 5,0 C 79 % 1035,9 hPa 0,0 l/m 0 min 0 min 0 W/m 3,2 km/h (1 Bft) 97,87 %
13.05.2019 02:14 6,6 C 5,6 C 5,0 C 79 % 1036,0 hPa 0,0 l/m 0 min 0 min 0 W/m 6,4 km/h (2 Bft) 97,87 %
13.05.2019 02:16 6,6 C 5,6 C 5,0 C 79 % 1036,0 hPa 0,0 l/m 0 min 0 min 0 W/m 6,4 km/h (2 Bft) 97,87 %
13.05.2019 02:18 6,5 C 5,6 C 5,0 C 79 % 1036,0 hPa 0,0 l/m 0 min 0 min 0 W/m 6,4 km/h (2 Bft) 97,83 %
13.05.2019 02:20 6,5 C 5,6 C 5,0 C 79 % 1036,0 hPa 0,0 l/m 0 min 0 min 0 W/m 3,2 km/h (1 Bft) 95,74 %
13.05.2019 02:22 6,5 C 5,0 C 5,0 C 79 % 1036,0 hPa 0,0 l/m 0 min 0 min 0 W/m 3,2 km/h (1 Bft) 95,74 %
13.05.2019 02:24 6,4 C 5,6 C 4,4 C 79 % 1036,0 hPa 0,0 l/m 0 min 0 min 0 W/m 6,4 km/h (2 Bft) 97,87 %
13.05.2019 02:26 6,4 C 5,6 C 4,4 C 79 % 1035,9 hPa 0,0 l/m 0 min 0 min 0 W/m 3,2 km/h (1 Bft) 97,87 %
13.05.2019 02:28 6,4 C 5,6 C 4,4 C 80 % 1036,0 hPa 0,0 l/m 0 min 0 min 0 W/m 3,2 km/h (1 Bft) 97,87 %
13.05.2019 02:30 6,4 C 5,6 C 4,4 C 80 % 1036,0 hPa 0,0 l/m 0 min 0 min 0 W/m 3,2 km/h (1 Bft) 97,83 %
13.05.2019 02:32 6,4 C 5,6 C 4,4 C 80 % 1035,9 hPa 0,0 l/m 0 min 0 min 0 W/m 3,2 km/h (1 Bft) 97,87 %
13.05.2019 02:34 6,4 C 5,6 C 4,4 C 80 % 1035,9 hPa 0,0 l/m 0 min 0 min 0 W/m 6,4 km/h (2 Bft) 97,87 %
13.05.2019 02:36 6,4 C 5,0 C 4,4 C 80 % 1036,0 hPa 0,0 l/m 0 min 0 min 0 W/m 3,2 km/h (1 Bft) 97,87 %
13.05.2019 02:38 6,4 C 5,0 C 4,4 C 80 % 1036,0 hPa 0,0 l/m 0 min 0 min 0 W/m 3,2 km/h (1 Bft) 95,74 %
13.05.2019 02:40 6,3 C 5,0 C 4,4 C 80 % 1036,0 hPa 0,0 l/m 0 min 0 min 0 W/m 6,4 km/h (2 Bft) 100,00 %
13.05.2019 02:42 6,3 C 5,0 C 4,4 C 80 % 1035,9 hPa 0,0 l/m 0 min 0 min 0 W/m 3,2 km/h (1 Bft) 97,83 %
13.05.2019 02:44 6,3 C 5,0 C 4,4 C 80 % 1035,9 hPa 0,0 l/m 0 min 0 min 0 W/m 6,4 km/h (2 Bft) 100,00 %
13.05.2019 02:46 6,3 C 5,0 C 4,4 C 80 % 1035,9 hPa 0,0 l/m 0 min 0 min 0 W/m 3,2 km/h (1 Bft) 97,87 %
13.05.2019 02:48 6,3 C 5,0 C 4,4 C 80 % 1035,9 hPa 0,0 l/m 0 min 0 min 0 W/m 3,2 km/h (1 Bft) 100,00 %
13.05.2019 02:50 6,2 C 5,0 C 4,4 C 80 % 1035,8 hPa 0,0 l/m 0 min 0 min 0 W/m 3,2 km/h (1 Bft) 100,00 %
13.05.2019 02:52 6,2 C 5,0 C 4,4 C 80 % 1035,8 hPa 0,0 l/m 0 min 0 min 0 W/m 6,4 km/h (2 Bft) 100,00 %
13.05.2019 02:54 6,2 C 5,0 C 4,4 C 81 % 1035,8 hPa 0,0 l/m 0 min 0 min 0 W/m 3,2 km/h (1 Bft) 100,00 %
13.05.2019 02:56 6,2 C 4,4 C 3,9 C 81 % 1035,8 hPa 0,0 l/m 0 min 0 min 0 W/m 3,2 km/h (1 Bft) 95,74 %
13.05.2019 02:58 6,2 C 5,0 C 4,4 C 81 % 1035,8 hPa 0,0 l/m 0 min 0 min 0 W/m 3,2 km/h (1 Bft) 100,00 %
13.05.2019 03:00 6,1 C 4,4 C 4,4 C 81 % 1035,8 hPa 0,0 l/m 0 min 0 min 0 W/m 3,2 km/h (1 Bft) 100,00 %
13.05.2019 03:02 6,1 C 4,4 C 3,9 C 81 % 1035,8 hPa 0,0 l/m 0 min 0 min 0 W/m 3,2 km/h (1 Bft) 100,00 %
13.05.2019 03:04 6,1 C 4,4 C 3,9 C 81 % 1035,9 hPa 0,0 l/m 0 min 0 min 0 W/m 0,0 km/h (0 Bft) 97,83 %
13.05.2019 03:06 6,0 C 4,4 C 3,9 C 81 % 1035,9 hPa 0,0 l/m 0 min 0 min 0 W/m 6,4 km/h (2 Bft) 97,87 %
13.05.2019 03:08 6,0 C 4,4 C 3,9 C 81 % 1035,8 hPa 0,0 l/m 0 min 0 min 0 W/m 6,4 km/h (2 Bft) 97,87 %
13.05.2019 03:10 6,0 C 4,4 C 3,9 C 81 % 1035,8 hPa 0,0 l/m 0 min 0 min 0 W/m 3,2 km/h (1 Bft) 100,00 %
13.05.2019 03:12 5,9 C 4,4 C 3,9 C 81 % 1035,9 hPa 0,0 l/m 0 min 0 min 0 W/m 6,4 km/h (2 Bft) 97,87 %
13.05.2019 03:14 5,9 C 4,4 C 3,9 C 81 % 1035,8 hPa 0,0 l/m 0 min 0 min 0 W/m 3,2 km/h (1 Bft) 97,87 %
13.05.2019 03:16 5,9 C 4,4 C 3,9 C 82 % 1035,9 hPa 0,0 l/m 0 min 0 min 0 W/m 6,4 km/h (2 Bft) 97,83 %
13.05.2019 03:18 5,9 C 5,0 C 3,9 C 82 % 1035,9 hPa 0,0 l/m 0 min 0 min 0 W/m 3,2 km/h (1 Bft) 97,87 %
13.05.2019 03:20 5,8 C 4,4 C 3,9 C 82 % 1035,9 hPa 0,0 l/m 0 min 0 min 0 W/m 3,2 km/h (1 Bft) 97,87 %
13.05.2019 03:22 5,8 C 4,4 C 3,9 C 82 % 1035,9 hPa 0,0 l/m 0 min 0 min 0 W/m 9,7 km/h (2 Bft) 97,87 %
13.05.2019 03:24 5,8 C 4,4 C 3,9 C 82 % 1035,9 hPa 0,0 l/m 0 min 0 min 0 W/m 3,2 km/h (1 Bft) 97,87 %
13.05.2019 03:26 5,8 C 4,4 C 3,9 C 82 % 1035,9 hPa 0,0 l/m 0 min 0 min 0 W/m 3,2 km/h (1 Bft) 95,74 %
13.05.2019 03:28 5,8 C 4,4 C 3,9 C 82 % 1035,9 hPa 0,0 l/m 0 min 0 min 0 W/m 3,2 km/h (1 Bft) 97,83 %
13.05.2019 03:30 5,8 C 4,4 C 3,9 C 82 % 1036,0 hPa 0,0 l/m 0 min 0 min 0 W/m 3,2 km/h (1 Bft) 97,87 %
13.05.2019 03:32 5,7 C 4,4 C 3,9 C 82 % 1036,0 hPa 0,0 l/m 0 min 0 min 0 W/m 3,2 km/h (1 Bft) 97,87 %
13.05.2019 03:34 5,7 C 4,4 C 3,9 C 82 % 1035,9 hPa 0,0 l/m 0 min 0 min 0 W/m 3,2 km/h (1 Bft) 95,74 %
13.05.2019 03:36 5,7 C 4,4 C 3,9 C 82 % 1035,9 hPa 0,0 l/m 0 min 0 min 0 W/m 3,2 km/h (1 Bft) 97,87 %
13.05.2019 03:38 5,7 C 4,4 C 3,9 C 82 % 1035,9 hPa 0,0 l/m 0 min 0 min 0 W/m 0,0 km/h (0 Bft) 95,74 %
13.05.2019 03:40 5,7 C 4,4 C 3,9 C 83 % 1035,9 hPa 0,0 l/m 0 min 0 min 0 W/m 3,2 km/h (1 Bft) 97,83 %
13.05.2019 03:42 5,7 C 4,4 C 3,9 C 82 % 1035,9 hPa 0,0 l/m 0 min 0 min 0 W/m 3,2 km/h (1 Bft) 97,87 %
13.05.2019 03:44 5,6 C 4,4 C 3,9 C 82 % 1035,9 hPa 0,0 l/m 0 min 0 min 0 W/m 3,2 km/h (1 Bft) 97,87 %
13.05.2019 03:46 5,6 C 3,9 C 3,3 C 83 % 1035,9 hPa 0,0 l/m 0 min 0 min 0 W/m 0,0 km/h (0 Bft) 100,00 %
13.05.2019 03:48 5,6 C 3,9 C 3,3 C 83 % 1035,9 hPa 0,0 l/m 0 min 0 min 0 W/m 3,2 km/h (1 Bft) 100,00 %
13.05.2019 03:50 5,6 C 3,9 C 3,3 C 83 % 1035,9 hPa 0,0 l/m 0 min 0 min 0 W/m 0,0 km/h (0 Bft) 100,00 %
13.05.2019 03:52 5,5 C 3,9 C 3,3 C 83 % 1035,9 hPa 0,0 l/m 0 min 0 min 0 W/m 0,0 km/h (0 Bft) 100,00 %
13.05.2019 03:54 5,5 C 3,9 C 3,3 C 83 % 1035,9 hPa 0,0 l/m 0 min 0 min 0 W/m 0,0 km/h (0 Bft) 95,74 %
13.05.2019 03:56 5,5 C 3,3 C 3,3 C 83 % 1035,9 hPa 0,0 l/m 0 min 0 min 0 W/m 0,0 km/h (0 Bft) 100,00 %
13.05.2019 03:58 5,4 C 3,3 C 3,3 C 83 % 1035,9 hPa 0,0 l/m 0 min 0 min 0 W/m 3,2 km/h (1 Bft) 100,00 %
13.05.2019 04:00 5,4 C 3,3 C 3,3 C 83 % 1035,9 hPa 0,0 l/m 0 min 0 min 0 W/m 0,0 km/h (0 Bft) 100,00 %
13.05.2019 04:02 5,4 C 3,3 C 3,3 C 83 % 1036,0 hPa 0,0 l/m 0 min 0 min 0 W/m 0,0 km/h (0 Bft) 100,00 %
13.05.2019 04:04 5,4 C 3,3 C 3,3 C 83 % 1036,0 hPa 0,0 l/m 0 min 0 min 0 W/m 0,0 km/h (0 Bft) 97,87 %
13.05.2019 04:06 5,3 C 3,3 C 3,3 C 83 % 1036,0 hPa 0,0 l/m 0 min 0 min 0 W/m 0,0 km/h (0 Bft) 100,00 %
13.05.2019 04:08 5,3 C 3,3 C 2,8 C 83 % 1036,0 hPa 0,0 l/m 0 min 0 min 0 W/m 0,0 km/h (0 Bft) 95,74 %
13.05.2019 04:10 5,3 C 3,3 C 2,8 C 83 % 1036,0 hPa 0,0 l/m 0 min 0 min 0 W/m 0,0 km/h (0 Bft) 100,00 %
13.05.2019 04:12 5,2 C 3,3 C 2,8 C 83 % 1036,0 hPa 0,0 l/m 0 min 0 min 0 W/m 0,0 km/h (0 Bft) 100,00 %
13.05.2019 04:14 5,2 C 3,3 C 2,8 C 83 % 1036,0 hPa 0,0 l/m 0 min 0 min 0 W/m 0,0 km/h (0 Bft) 100,00 %
13.05.2019 04:16 5,2 C 3,3 C 2,8 C 83 % 1036,0 hPa 0,0 l/m 0 min 0 min 0 W/m 0,0 km/h (0 Bft) 100,00 %
13.05.2019 04:18 5,2 C 3,3 C 2,8 C 83 % 1035,9 hPa 0,0 l/m 0 min 0 min 0 W/m 0,0 km/h (0 Bft) 100,00 %
13.05.2019 04:20 5,2 C 3,3 C 2,8 C 83 % 1036,0 hPa 0,0 l/m 0 min 0 min 0 W/m 0,0 km/h (0 Bft) 97,87 %
13.05.2019 04:22 5,1 C 3,3 C 2,8 C 83 % 1036,1 hPa 0,0 l/m 0 min 0 min 0 W/m 0,0 km/h (0 Bft) 100,00 %
13.05.2019 04:24 5,1 C 3,3 C 2,8 C 83 % 1036,1 hPa 0,0 l/m 0 min 0 min 0 W/m 0,0 km/h (0 Bft) 97,87 %
13.05.2019 04:26 5,0 C 2,8 C 2,8 C 83 % 1036,1 hPa 0,0 l/m 0 min 0 min 0 W/m 0,0 km/h (0 Bft) 97,83 %
13.05.2019 04:28 5,0 C 2,8 C 2,8 C 83 % 1036,1 hPa 0,0 l/m 0 min 0 min 0 W/m 0,0 km/h (0 Bft) 97,87 %
13.05.2019 04:30 5,0 C 2,8 C 2,8 C 83 % 1036,1 hPa 0,0 l/m 0 min 0 min 0 W/m 0,0 km/h (0 Bft) 97,87 %
13.05.2019 04:32 4,9 C 2,8 C 2,8 C 83 % 1036,1 hPa 0,0 l/m 0 min 0 min 0 W/m 0,0 km/h (0 Bft) 97,87 %
13.05.2019 04:34 4,9 C 2,8 C 2,2 C 83 % 1036,1 hPa 0,0 l/m 0 min 0 min 0 W/m 0,0 km/h (0 Bft) 97,87 %
13.05.2019 04:36 4,9 C 2,8 C 2,2 C 83 % 1036,1 hPa 0,0 l/m 0 min 0 min 0 W/m 0,0 km/h (0 Bft) 97,87 %
13.05.2019 04:38 4,8 C 2,8 C 2,2 C 83 % 1036,1 hPa 0,0 l/m 0 min 0 min 0 W/m 0,0 km/h (0 Bft) 97,83 %
13.05.2019 04:40 4,8 C 2,8 C 2,2 C 83 % 1036,1 hPa 0,0 l/m 0 min 0 min 0 W/m 0,0 km/h (0 Bft) 97,87 %
13.05.2019 04:42 4,8 C 2,8 C 2,2 C 83 % 1036,2 hPa 0,0 l/m 0 min 0 min 0 W/m 0,0 km/h (0 Bft) 97,87 %
13.05.2019 04:44 4,7 C 2,8 C 2,2 C 83 % 1036,2 hPa 0,0 l/m 0 min 0 min 0 W/m 0,0 km/h (0 Bft) 97,87 %
13.05.2019 04:46 4,7 C 2,8 C 2,2 C 83 % 1036,2 hPa 0,0 l/m 0 min 0 min 0 W/m 0,0 km/h (0 Bft) 95,74 %
13.05.2019 04:48 4,7 C 2,8 C 2,2 C 83 % 1036,1 hPa 0,0 l/m 0 min 0 min 0 W/m 0,0 km/h (0 Bft) 97,87 %
13.05.2019 04:50 4,7 C 2,2 C 2,2 C 83 % 1036,1 hPa 0,0 l/m 0 min 0 min 0 W/m 0,0 km/h (0 Bft) 95,65 %
13.05.2019 04:52 4,6 C 2,2 C 2,2 C 83 % 1036,1 hPa 0,0 l/m 0 min 0 min 0 W/m 0,0 km/h (0 Bft) 97,87 %
13.05.2019 04:54 4,6 C 2,8 C 2,2 C 83 % 1036,1 hPa 0,0 l/m 0 min 0 min 0 W/m 0,0 km/h (0 Bft) 95,74 %
13.05.2019 04:56 4,6 C 2,8 C 2,2 C 83 % 1036,1 hPa 0,0 l/m 0 min 0 min 0 W/m 0,0 km/h (0 Bft) 93,62 %
13.05.2019 04:58 4,5 C 2,8 C 2,2 C 83 % 1036,2 hPa 0,0 l/m 0 min 0 min 0 W/m 0,0 km/h (0 Bft) 93,62 %
13.05.2019 05:00 4,5 C 2,8 C 2,2 C 83 % 1036,2 hPa 0,0 l/m 0 min 0 min 0 W/m 0,0 km/h (0 Bft) 93,48 %
13.05.2019 05:02 4,4 C 2,8 C 2,2 C 83 % 1036,2 hPa 0,0 l/m 0 min 0 min 0 W/m 0,0 km/h (0 Bft) 93,62 %
13.05.2019 05:04 4,4 C 2,8 C 2,2 C 84 % 1036,3 hPa 0,0 l/m 0 min 0 min 0 W/m 0,0 km/h (0 Bft) 93,62 %
13.05.2019 05:05 4,4 C 2,8 C 2,2 C 84 % 1036,3 hPa 0,0 l/m 0 min 0 min 0 W/m 0,0 km/h (0 Bft) 96,49 %
13.05.2019 05:10 4,3 C 2,8 C 2,2 C 84 % 1036,3 hPa 0,0 l/m 0 min 0 min 0 W/m 0,0 km/h (0 Bft) 95,61 %
13.05.2019 05:12 4,3 C 2,8 C 2,2 C 84 % 1036,2 hPa 0,0 l/m 0 min 0 min 0 W/m 0,0 km/h (0 Bft) 97,06 %
13.05.2019 05:14 4,3 C 2,8 C 2,2 C 84 % 1036,3 hPa 0,0 l/m 0 min 0 min 0 W/m 0,0 km/h (0 Bft) 89,36 %
13.05.2019 05:16 4,2 C 2,8 C 2,2 C 84 % 1036,3 hPa 0,0 l/m 0 min 0 min 0 W/m 0,0 km/h (0 Bft) 100,00 %
13.05.2019 05:18 4,2 C 2,2 C 2,2 C 84 % 1036,4 hPa 0,0 l/m 0 min 0 min 0 W/m 0,0 km/h (0 Bft) 95,92 %
13.05.2019 05:20 4,2 C 2,8 C 2,2 C 84 % 1036,4 hPa 0,0 l/m 0 min 0 min 0 W/m 0,0 km/h (0 Bft) 93,48 %
13.05.2019 05:22 4,2 C 2,8 C 2,2 C 84 % 1036,4 hPa 0,0 l/m 0 min 0 min 0 W/m 0,0 km/h (0 Bft) 97,37 %
13.05.2019 05:24 4,1 C 2,8 C 2,2 C 84 % 1036,4 hPa 0,0 l/m 0 min 0 min 0 W/m 0,0 km/h (0 Bft) 95,74 %
13.05.2019 05:26 4,1 C 2,2 C 1,7 C 85 % 1036,4 hPa 0,0 l/m 0 min 0 min 0 W/m 0,0 km/h (0 Bft) 95,74 %
13.05.2019 05:28 4,1 C 2,2 C 1,7 C 85 % 1036,4 hPa 0,0 l/m 0 min 0 min 0 W/m 0,0 km/h (0 Bft) 94,00 %
13.05.2019 05:30 4,1 C 2,2 C 1,7 C 85 % 1036,5 hPa 0,0 l/m 0 min 0 min 0 W/m 0,0 km/h (0 Bft) 95,12 %
13.05.2019 05:32 4,0 C 2,2 C 1,7 C 85 % 1036,5 hPa 0,0 l/m 0 min 0 min 0 W/m 0,0 km/h (0 Bft) 96,00 %
13.05.2019 05:34 4,0 C 2,2 C 1,7 C 85 % 1036,5 hPa 0,0 l/m 0 min 0 min 0 W/m 0,0 km/h (0 Bft) 93,88 %
13.05.2019 05:36 3,9 C 1,7 C 1,7 C 85 % 1036,4 hPa 0,0 l/m 0 min 0 min 0 W/m 0,0 km/h (0 Bft) 95,74 %
13.05.2019 05:38 3,9 C 1,7 C 1,7 C 85 % 1036,4 hPa 0,0 l/m 0 min 0 min 0 W/m 0,0 km/h (0 Bft) 95,74 %
13.05.2019 05:40 3,9 C 1,7 C 1,7 C 85 % 1036,4 hPa 0,0 l/m 0 min 0 min 0 W/m 0,0 km/h (0 Bft) 95,74 %
13.05.2019 05:42 3,9 C 1,7 C 1,7 C 85 % 1036,5 hPa 0,0 l/m 0 min 0 min 0 W/m 0,0 km/h (0 Bft) 92,11 %
13.05.2019 05:44 3,8 C 1,7 C 1,7 C 85 % 1036,5 hPa 0,0 l/m 0 min 0 min 0 W/m 0,0 km/h (0 Bft) 95,92 %
13.05.2019 05:46 3,8 C 1,7 C 1,7 C 85 % 1036,5 hPa 0,0 l/m 0 min 0 min 0 W/m 0,0 km/h (0 Bft) 96,00 %
13.05.2019 05:48 3,8 C 1,7 C 1,7 C 85 % 1036,5 hPa 0,0 l/m 0 min 0 min 0 W/m 0,0 km/h (0 Bft) 94,74 %
13.05.2019 05:50 3,7 C 1,7 C 1,7 C 85 % 1036,5 hPa 0,0 l/m 0 min 0 min 0 W/m 0,0 km/h (0 Bft) 96,00 %
13.05.2019 05:52 3,7 C 1,7 C 1,7 C 85 % 1036,5 hPa 0,0 l/m 0 min 0 min 5 W/m 0,0 km/h (0 Bft) 93,75 %
13.05.2019 05:54 3,7 C 1,7 C 1,7 C 85 % 1036,6 hPa 0,0 l/m 0 min 0 min 5 W/m 0,0 km/h (0 Bft) 93,88 %
13.05.2019 05:56 3,7 C 1,7 C 1,7 C 85 % 1036,6 hPa 0,0 l/m 0 min 0 min 5 W/m 0,0 km/h (0 Bft) 95,74 %
13.05.2019 05:58 3,6 C 1,7 C 1,1 C 85 % 1036,6 hPa 0,0 l/m 0 min 0 min 7 W/m 0,0 km/h (0 Bft) 97,87 %
13.05.2019 06:00 3,6 C 1,7 C 1,7 C 85 % 1036,7 hPa 0,0 l/m 0 min 0 min 7 W/m 0,0 km/h (0 Bft) 97,14 %
13.05.2019 06:02 3,6 C 1,7 C 1,7 C 85 % 1036,7 hPa 0,0 l/m 0 min 0 min 9 W/m 0,0 km/h (0 Bft) 100,00 %
13.05.2019 06:04 3,6 C 1,7 C 1,7 C 85 % 1036,6 hPa 0,0 l/m 0 min 0 min 10 W/m 0,0 km/h (0 Bft) 97,87 %
13.05.2019 06:07 3,5 C 1,7 C 1,7 C 85 % 1036,7 hPa 0,0 l/m 0 min 0 min 11 W/m 0,0 km/h (0 Bft) 97,87 %
13.05.2019 06:08 3,5 C 1,7 C 1,7 C 85 % 1036,7 hPa 0,0 l/m 0 min 0 min 11 W/m 0,0 km/h (0 Bft) 97,98 %
13.05.2019 06:10 3,4 C 2,2 C 1,7 C 85 % 1036,6 hPa 0,0 l/m 0 min 0 min 12 W/m 0,0 km/h (0 Bft) 97,92 %
13.05.2019 06:12 3,4 C 2,2 C 1,7 C 85 % 1036,6 hPa 0,0 l/m 0 min 0 min 12 W/m 0,0 km/h (0 Bft) 95,92 %
13.05.2019 06:14 3,4 C 2,2 C 1,7 C 86 % 1036,6 hPa 0,0 l/m 0 min 0 min 14 W/m 0,0 km/h (0 Bft) 100,00 %
13.05.2019 06:16 3,4 C 2,2 C 1,7 C 86 % 1036,6 hPa 0,0 l/m 0 min 0 min 15 W/m 0,0 km/h (0 Bft) 100,00 %
13.05.2019 06:18 3,3 C 2,2 C 1,7 C 86 % 1036,6 hPa 0,0 l/m 0 min 0 min 16 W/m 0,0 km/h (0 Bft) 100,00 %
13.05.2019 06:20 3,3 C 2,2 C 1,7 C 86 % 1036,7 hPa 0,0 l/m 0 min 0 min 17 W/m 0,0 km/h (0 Bft) 100,00 %
13.05.2019 06:22 3,3 C 2,2 C 1,7 C 86 % 1036,8 hPa 0,0 l/m 0 min 0 min 18 W/m 0,0 km/h (0 Bft) 95,83 %
13.05.2019 06:24 3,3 C 2,2 C 1,7 C 86 % 1036,7 hPa 0,0 l/m 0 min 0 min 19 W/m 0,0 km/h (0 Bft) 100,00 %
13.05.2019 06:26 3,3 C 2,2 C 1,7 C 86 % 1036,7 hPa 0,0 l/m 0 min 0 min 19 W/m 0,0 km/h (0 Bft) 100,00 %
13.05.2019 06:28 3,2 C 2,2 C 1,7 C 86 % 1036,8 hPa 0,0 l/m 0 min 0 min 20 W/m 0,0 km/h (0 Bft) 97,87 %
13.05.2019 06:30 3,2 C 2,2 C 1,7 C 87 % 1036,8 hPa 0,0 l/m 0 min 0 min 21 W/m 0,0 km/h (0 Bft) 97,87 %
13.05.2019 06:32 3,2 C 2,2 C 1,7 C 87 % 1036,8 hPa 0,0 l/m 0 min 0 min 23 W/m 0,0 km/h (0 Bft) 97,62 %
13.05.2019 06:34 3,2 C 2,8 C 1,7 C 87 % 1036,9 hPa 0,0 l/m 0 min 0 min 25 W/m 0,0 km/h (0 Bft) 100,00 %
13.05.2019 06:36 3,2 C 2,8 C 2,2 C 87 % 1036,8 hPa 0,0 l/m 0 min 0 min 26 W/m 0,0 km/h (0 Bft) 95,74 %
13.05.2019 06:38 3,2 C 2,8 C 2,2 C 87 % 1036,8 hPa 0,0 l/m 0 min 0 min 26 W/m 0,0 km/h (0 Bft) 97,87 %
13.05.2019 06:40 3,2 C 2,8 C 2,2 C 87 % 1036,8 hPa 0,0 l/m 0 min 0 min 28 W/m 0,0 km/h (0 Bft) 97,87 %
13.05.2019 06:42 3,2 C 2,8 C 2,2 C 87 % 1036,7 hPa 0,0 l/m 0 min 0 min 29 W/m 0,0 km/h (0 Bft) 97,56 %
13.05.2019 06:44 3,2 C 2,8 C 2,2 C 87 % 1036,8 hPa 0,0 l/m 0 min 0 min 30 W/m 3,2 km/h (1 Bft) 97,96 %
13.05.2019 06:46 3,2 C 2,8 C 2,2 C 87 % 1036,8 hPa 0,0 l/m 0 min 0 min 29 W/m 3,2 km/h (1 Bft) 97,92 %
13.05.2019 06:48 3,2 C 3,3 C 2,2 C 88 % 1036,9 hPa 0,0 l/m 0 min 0 min 32 W/m 0,0 km/h (0 Bft) 95,92 %
13.05.2019 06:50 3,2 C 3,3 C 2,2 C 88 % 1036,8 hPa 0,0 l/m 0 min 0 min 32 W/m 0,0 km/h (0 Bft) 97,87 %
13.05.2019 06:52 3,2 C 3,3 C 2,2 C 88 % 1036,8 hPa 0,0 l/m 0 min 0 min 33 W/m 3,2 km/h (1 Bft) 97,87 %
13.05.2019 06:54 3,2 C 3,3 C 2,2 C 88 % 1036,8 hPa 0,0 l/m 0 min 0 min 33 W/m 0,0 km/h (0 Bft) 97,56 %
13.05.2019 06:56 3,2 C 3,3 C 2,8 C 88 % 1036,8 hPa 0,0 l/m 0 min 0 min 34 W/m 0,0 km/h (0 Bft) 97,96 %
13.05.2019 06:58 3,2 C 3,3 C 2,8 C 88 % 1036,9 hPa 0,0 l/m 0 min 0 min 35 W/m 0,0 km/h (0 Bft) 97,96 %
13.05.2019 07:00 3,2 C 3,3 C 2,8 C 89 % 1036,9 hPa 0,0 l/m 0 min 0 min 38 W/m 0,0 km/h (0 Bft) 93,62 %
13.05.2019 07:02 3,2 C 3,3 C 2,8 C 89 % 1036,9 hPa 0,0 l/m 0 min 0 min 40 W/m 0,0 km/h (0 Bft) 95,83 %
13.05.2019 07:04 3,2 C 3,9 C 2,8 C 89 % 1037,0 hPa 0,0 l/m 0 min 0 min 43 W/m 0,0 km/h (0 Bft) 97,87 %
13.05.2019 07:06 3,3 C 3,9 C 2,8 C 89 % 1037,1 hPa 0,0 l/m 0 min 0 min 45 W/m 0,0 km/h (0 Bft) 95,65 %
13.05.2019 07:08 3,3 C 3,9 C 2,8 C 89 % 1037,0 hPa 0,0 l/m 0 min 0 min 47 W/m 0,0 km/h (0 Bft) 97,67 %
13.05.2019 07:10 3,3 C 3,9 C 2,8 C 90 % 1037,0 hPa 0,0 l/m 0 min 0 min 47 W/m 0,0 km/h (0 Bft) 97,83 %
13.05.2019 07:12 3,3 C 3,9 C 3,3 C 90 % 1037,0 hPa 0,0 l/m 0 min 0 min 47 W/m 0,0 km/h (0 Bft) 100,00 %
13.05.2019 07:14 3,4 C 3,9 C 3,3 C 90 % 1037,0 hPa 0,0 l/m 0 min 0 min 48 W/m 0,0 km/h (0 Bft) 100,00 %
13.05.2019 07:16 3,4 C 4,4 C 3,3 C 90 % 1036,9 hPa 0,0 l/m 0 min 0 min 47 W/m 0,0 km/h (0 Bft) 97,92 %
13.05.2019 07:18 3,4 C 4,4 C 3,3 C 90 % 1037,0 hPa 0,0 l/m 0 min 0 min 46 W/m 0,0 km/h (0 Bft) 100,00 %
13.05.2019 07:20 3,5 C 4,4 C 3,3 C 91 % 1037,0 hPa 0,0 l/m 0 min 0 min 45 W/m 0,0 km/h (0 Bft) 100,00 %
13.05.2019 07:22 3,6 C 4,4 C 3,3 C 91 % 1037,0 hPa 0,0 l/m 0 min 0 min 46 W/m 0,0 km/h (0 Bft) 100,00 %
13.05.2019 07:24 3,6 C 4,4 C 3,3 C 91 % 1037,0 hPa 0,0 l/m 0 min 0 min 45 W/m 0,0 km/h (0 Bft) 100,00 %
13.05.2019 07:26 3,6 C 4,4 C 3,3 C 91 % 1037,0 hPa 0,0 l/m 0 min 0 min 45 W/m 0,0 km/h (0 Bft) 100,00 %
13.05.2019 07:28 3,7 C 4,4 C 3,3 C 91 % 1037,0 hPa 0,0 l/m 0 min 0 min 46 W/m 0,0 km/h (0 Bft) 100,00 %
13.05.2019 07:30 3,7 C 4,4 C 3,9 C 91 % 1037,0 hPa 0,0 l/m 0 min 0 min 47 W/m 0,0 km/h (0 Bft) 100,00 %
13.05.2019 07:32 3,7 C 5,0 C 3,9 C 91 % 1037,0 hPa 0,0 l/m 0 min 0 min 49 W/m 0,0 km/h (0 Bft) 100,00 %
13.05.2019 07:34 3,8 C 5,0 C 3,9 C 91 % 1037,0 hPa 0,0 l/m 0 min 0 min 49 W/m 0,0 km/h (0 Bft) 100,00 %
13.05.2019 07:36 3,8 C 5,0 C 3,9 C 92 % 1037,0 hPa 0,0 l/m 0 min 0 min 51 W/m 0,0 km/h (0 Bft) 100,00 %
13.05.2019 07:38 3,9 C 5,6 C 3,9 C 92 % 1037,0 hPa 0,0 l/m 0 min 0 min 53 W/m 0,0 km/h (0 Bft) 100,00 %
13.05.2019 07:40 3,9 C 5,6 C 3,9 C 92 % 1037,0 hPa 0,0 l/m 0 min 0 min 51 W/m 9,7 km/h (2 Bft) 100,00 %
13.05.2019 07:42 4,1 C 5,6 C 4,4 C 92 % 1037,0 hPa 0,0 l/m 0 min 0 min 52 W/m 6,4 km/h (2 Bft) 100,00 %
13.05.2019 07:44 4,1 C 5,6 C 4,4 C 92 % 1036,9 hPa 0,0 l/m 0 min 0 min 55 W/m 6,4 km/h (2 Bft) 100,00 %
13.05.2019 07:46 4,2 C 6,1 C 4,4 C 92 % 1037,0 hPa 0,0 l/m 0 min 0 min 56 W/m 9,7 km/h (2 Bft) 100,00 %
13.05.2019 07:48 4,3 C 6,1 C 5,0 C 92 % 1037,0 hPa 0,0 l/m 0 min 0 min 59 W/m 6,4 km/h (2 Bft) 97,96 %
13.05.2019 07:50 4,4 C 6,1 C 5,0 C 93 % 1037,0 hPa 0,0 l/m 0 min 0 min 59 W/m 3,2 km/h (1 Bft) 100,00 %
13.05.2019 07:52 4,5 C 6,7 C 5,0 C 93 % 1037,0 hPa 0,0 l/m 0 min 0 min 60 W/m 6,4 km/h (2 Bft) 100,00 %
13.05.2019 07:54 4,6 C 6,7 C 5,0 C 93 % 1037,0 hPa 0,0 l/m 0 min 0 min 58 W/m 6,4 km/h (2 Bft) 100,00 %
13.05.2019 07:56 4,7 C 6,7 C 5,0 C 93 % 1037,0 hPa 0,0 l/m 0 min 0 min 60 W/m 6,4 km/h (2 Bft) 100,00 %
13.05.2019 07:58 4,8 C 6,7 C 5,0 C 93 % 1037,1 hPa 0,0 l/m 0 min 0 min 62 W/m 9,7 km/h (2 Bft) 100,00 %
13.05.2019 08:00 4,8 C 6,7 C 5,6 C 93 % 1037,1 hPa 0,0 l/m 0 min 0 min 66 W/m 6,4 km/h (2 Bft) 100,00 %
13.05.2019 08:02 4,9 C 7,2 C 5,6 C 93 % 1037,1 hPa 0,0 l/m 0 min 0 min 74 W/m 6,4 km/h (2 Bft) 100,00 %
13.05.2019 08:04 5,1 C 7,2 C 5,6 C 93 % 1037,1 hPa 0,0 l/m 0 min 0 min 78 W/m 9,7 km/h (2 Bft) 100,00 %
13.05.2019 08:06 5,2 C 7,2 C 5,6 C 93 % 1037,0 hPa 0,0 l/m 0 min 0 min 81 W/m 9,7 km/h (2 Bft) 95,83 %
13.05.2019 08:08 5,3 C 7,2 C 6,1 C 93 % 1037,1 hPa 0,0 l/m 0 min 0 min 80 W/m 9,7 km/h (2 Bft) 95,74 %
13.05.2019 08:10 5,4 C 7,2 C 6,1 C 94 % 1037,1 hPa 0,0 l/m 0 min 0 min 83 W/m 6,4 km/h (2 Bft) 97,87 %
13.05.2019 08:12 5,5 C 7,2 C 6,1 C 94 % 1037,1 hPa 0,0 l/m 0 min 0 min 82 W/m 9,7 km/h (2 Bft) 97,87 %
13.05.2019 08:14 5,6 C 7,8 C 6,1 C 93 % 1037,1 hPa 0,0 l/m 0 min 0 min 85 W/m 9,7 km/h (2 Bft) 97,62 %
13.05.2019 08:16 5,7 C 8,9 C 6,1 C 93 % 1037,1 hPa 0,0 l/m 0 min 0 min 88 W/m 6,4 km/h (2 Bft) 95,92 %
13.05.2019 08:18 5,8 C 9,4 C 6,1 C 94 % 1037,0 hPa 0,0 l/m 0 min 0 min 88 W/m 6,4 km/h (2 Bft) 97,92 %
13.05.2019 08:20 5,9 C 10,0 C 6,7 C 93 % 1037,1 hPa 0,0 l/m 0 min 0 min 90 W/m 6,4 km/h (2 Bft) 95,83 %
13.05.2019 08:22 5,9 C 10,6 C 6,7 C 93 % 1037,1 hPa 0,0 l/m 0 min 0 min 96 W/m 6,4 km/h (2 Bft) 95,74 %
13.05.2019 08:24 6,1 C 10,6 C 6,7 C 93 % 1037,1 hPa 0,0 l/m 0 min 0 min 102 W/m 6,4 km/h (2 Bft) 97,87 %
13.05.2019 08:26 6,2 C 11,1 C 6,7 C 93 % 1037,1 hPa 0,0 l/m 0 min 0 min 114 W/m 6,4 km/h (2 Bft) 97,62 %
13.05.2019 08:28 6,3 C 11,7 C 7,2 C 93 % 1037,1 hPa 0,0 l/m 0 min 0 min 132 W/m 9,7 km/h (2 Bft) 95,74 %
13.05.2019 08:30 6,4 C 11,7 C 7,2 C 93 % 1037,2 hPa 0,0 l/m 0 min 0 min 145 W/m 16,1 km/h (3 Bft) 97,92 %
13.05.2019 08:32 6,6 C 11,1 C 7,2 C 93 % 1037,1 hPa 0,0 l/m 0 min 0 min 157 W/m 9,7 km/h (2 Bft) 95,74 %
13.05.2019 08:34 6,7 C 12,2 C 7,8 C 93 % 1037,2 hPa 0,0 l/m 2 min 0 min 200 W/m 6,4 km/h (2 Bft) 95,92 %
13.05.2019 08:36 6,8 C 12,2 C 8,3 C 93 % 1037,3 hPa 0,0 l/m 2 min 0 min 228 W/m 12,9 km/h (3 Bft) 93,75 %
13.05.2019 08:38 7,0 C 13,3 C 8,3 C 93 % 1037,3 hPa 0,0 l/m 2 min 0 min 269 W/m 9,7 km/h (2 Bft) 95,74 %
13.05.2019 08:40 7,2 C 13,9 C 8,9 C 92 % 1037,3 hPa 0,0 l/m 2 min 0 min 309 W/m 12,9 km/h (3 Bft) 95,65 %
13.05.2019 08:42 7,3 C 13,9 C 9,4 C 92 % 1037,3 hPa 0,0 l/m 2 min 0 min 304 W/m 12,9 km/h (3 Bft) 97,67 %
13.05.2019 08:44 7,5 C 13,9 C 11,1 C 92 % 1037,3 hPa 0,0 l/m 2 min 0 min 338 W/m 9,7 km/h (2 Bft) 95,83 %
13.05.2019 08:46 7,7 C 14,4 C 12,2 C 91 % 1037,3 hPa 0,0 l/m 2 min 0 min 352 W/m 6,4 km/h (2 Bft) 95,92 %
13.05.2019 08:48 7,9 C 15,0 C 13,9 C 90 % 1037,3 hPa 0,0 l/m 2 min 0 min 355 W/m 9,7 km/h (2 Bft) 97,92 %
13.05.2019 08:50 8,2 C 15,0 C 14,4 C 90 % 1037,3 hPa 0,0 l/m 2 min 0 min 422 W/m 9,7 km/h (2 Bft) 97,83 %
13.05.2019 08:52 8,4 C 15,0 C 15,0 C 89 % 1037,3 hPa 0,0 l/m 2 min 0 min 394 W/m 9,7 km/h (2 Bft) 97,87 %
13.05.2019 08:54 8,6 C 15,6 C 15,6 C 87 % 1037,3 hPa 0,0 l/m 2 min 0 min 497 W/m 9,7 km/h (2 Bft) 95,24 %
13.05.2019 08:56 8,7 C 16,1 C 16,7 C 86 % 1037,2 hPa 0,0 l/m 2 min 0 min 504 W/m 9,7 km/h (2 Bft) 97,96 %
13.05.2019 08:58 8,9 C 16,1 C 16,7 C 86 % 1037,3 hPa 0,0 l/m 2 min 0 min 427 W/m 6,4 km/h (2 Bft) 98,00 %
13.05.2019 09:00 9,1 C 15,6 C 16,1 C 84 % 1037,2 hPa 0,0 l/m 2 min 0 min 401 W/m 9,7 km/h (2 Bft) 97,87 %
13.05.2019 09:02 9,2 C 15,0 C 15,6 C 83 % 1037,3 hPa 0,0 l/m 2 min 0 min 366 W/m 9,7 km/h (2 Bft) 95,65 %
13.05.2019 09:04 9,3 C 15,0 C 16,1 C 83 % 1037,2 hPa 0,0 l/m 2 min 0 min 400 W/m 12,9 km/h (3 Bft) 95,74 %
13.05.2019 09:06 9,4 C 14,4 C 16,1 C 81 % 1037,3 hPa 0,0 l/m 2 min 0 min 427 W/m 12,9 km/h (3 Bft) 95,74 %
13.05.2019 09:08 9,5 C 15,0 C 16,1 C 80 % 1037,2 hPa 0,0 l/m 2 min 0 min 431 W/m 9,7 km/h (2 Bft) 97,56 %
13.05.2019 09:10 9,6 C 14,4 C 15,6 C 80 % 1037,2 hPa 0,0 l/m 2 min 0 min 368 W/m 16,1 km/h (3 Bft) 95,74 %
13.05.2019 09:12 9,7 C 13,9 C 15,6 C 79 % 1037,3 hPa 0,0 l/m 2 min 0 min 378 W/m 6,4 km/h (2 Bft) 97,96 %
13.05.2019 09:14 9,8 C 14,4 C 15,6 C 78 % 1037,2 hPa 0,0 l/m 2 min 0 min 423 W/m 9,7 km/h (2 Bft) 95,92 %
13.05.2019 09:16 9,8 C 15,0 C 16,1 C 77 % 1037,2 hPa 0,0 l/m 2 min 0 min 472 W/m 9,7 km/h (2 Bft) 97,92 %
13.05.2019 09:18 9,9 C 15,6 C 16,7 C 78 % 1037,4 hPa 0,0 l/m 2 min 0 min 445 W/m 9,7 km/h (2 Bft) 95,74 %
13.05.2019 09:20 10,1 C 14,4 C 15,6 C 77 % 1037,3 hPa 0,0 l/m 2 min 0 min 400 W/m 16,1 km/h (3 Bft) 97,87 %
13.05.2019 09:22 10,1 C 14,4 C 15,6 C 76 % 1037,3 hPa 0,0 l/m 2 min 0 min 375 W/m 9,7 km/h (2 Bft) 97,56 %
13.05.2019 09:24 10,2 C 15,0 C 16,1 C 76 % 1037,3 hPa 0,0 l/m 2 min 0 min 428 W/m 6,4 km/h (2 Bft) 97,96 %
13.05.2019 09:26 10,3 C 15,0 C 16,1 C 76 % 1037,3 hPa 0,0 l/m 2 min 0 min 408 W/m 9,7 km/h (2 Bft) 97,96 %
13.05.2019 09:28 10,3 C 16,7 C 17,2 C 76 % 1037,2 hPa 0,0 l/m 2 min 0 min 473 W/m 6,4 km/h (2 Bft) 97,92 %
13.05.2019 09:30 10,4 C 16,7 C 17,8 C 75 % 1037,3 hPa 0,0 l/m 2 min 0 min 538 W/m 12,9 km/h (3 Bft) 97,87 %
13.05.2019 09:32 10,5 C 17,2 C 17,8 C 75 % 1037,2 hPa 0,0 l/m 2 min 0 min 581 W/m 9,7 km/h (2 Bft) 97,87 %
13.05.2019 09:34 10,6 C 17,2 C 18,3 C 74 % 1037,2 hPa 0,0 l/m 2 min 0 min 588 W/m 16,1 km/h (3 Bft) 92,86 %
13.05.2019 09:36 10,7 C 16,7 C 18,3 C 73 % 1037,3 hPa 0,0 l/m 2 min 0 min 557 W/m 9,7 km/h (2 Bft) 97,96 %
13.05.2019 09:38 10,8 C 15,6 C 17,2 C 72 % 1037,3 hPa 0,0 l/m 2 min 0 min 545 W/m 9,7 km/h (2 Bft) 97,96 %
13.05.2019 09:40 10,9 C 16,1 C 17,2 C 72 % 1037,2 hPa 0,0 l/m 2 min 0 min 529 W/m 9,7 km/h (2 Bft) 97,87 %
13.05.2019 09:42 10,9 C 16,7 C 17,8 C 71 % 1037,1 hPa 0,0 l/m 2 min 0 min 616 W/m 12,9 km/h (3 Bft) 97,87 %
13.05.2019 09:44 11,0 C 17,2 C 18,3 C 71 % 1037,1 hPa 0,0 l/m 2 min 0 min 600 W/m 9,7 km/h (2 Bft) 97,87 %
13.05.2019 09:46 11,1 C 18,9 C 20,0 C 71 % 1037,2 hPa 0,0 l/m 2 min 0 min 695 W/m 6,4 km/h (2 Bft) 97,62 %
13.05.2019 09:48 11,3 C 18,3 C 19,4 C 72 % 1037,2 hPa 0,0 l/m 2 min 0 min 637 W/m 9,7 km/h (2 Bft) 97,96 %
13.05.2019 09:50 11,4 C 17,8 C 19,4 C 71 % 1037,2 hPa 0,0 l/m 2 min 0 min 573 W/m 12,9 km/h (3 Bft) 95,92 %
13.05.2019 09:52 11,4 C 18,3 C 20,0 C 71 % 1037,2 hPa 0,0 l/m 2 min 0 min 606 W/m 9,7 km/h (2 Bft) 97,87 %
13.05.2019 09:54 11,6 C 18,3 C 20,0 C 70 % 1037,3 hPa 0,0 l/m 2 min 0 min 603 W/m 12,9 km/h (3 Bft) 97,87 %
13.05.2019 09:56 11,7 C 18,3 C 19,4 C 70 % 1037,3 hPa 0,0 l/m 2 min 0 min 647 W/m 9,7 km/h (2 Bft) 97,87 %
13.05.2019 09:58 11,8 C 20,0 C 20,6 C 70 % 1037,3 hPa 0,0 l/m 2 min 0 min 665 W/m 9,7 km/h (2 Bft) 97,73 %
13.05.2019 10:00 11,9 C 18,9 C 19,4 C 70 % 1037,3 hPa 0,0 l/m 2 min 0 min 620 W/m 9,7 km/h (2 Bft) 97,78 %
13.05.2019 10:02 12,0 C 19,4 C 20,6 C 70 % 1037,3 hPa 0,0 l/m 2 min 0 min 654 W/m 9,7 km/h (2 Bft) 98,00 %
13.05.2019 10:04 12,1 C 20,0 C 21,1 C 70 % 1037,3 hPa 0,0 l/m 2 min 0 min 680 W/m 9,7 km/h (2 Bft) 97,83 %
13.05.2019 10:06 12,3 C 20,0 C 20,6 C 69 % 1037,3 hPa 0,0 l/m 2 min 0 min 680 W/m 9,7 km/h (2 Bft) 97,96 %
13.05.2019 10:08 12,4 C 20,6 C 21,1 C 69 % 1037,3 hPa 0,0 l/m 2 min 0 min 687 W/m 6,4 km/h (2 Bft) 97,87 %
13.05.2019 10:10 12,5 C 20,6 C 21,1 C 68 % 1037,4 hPa 0,0 l/m 2 min 0 min 692 W/m 9,7 km/h (2 Bft) 95,74 %
13.05.2019 10:12 12,6 C 21,1 C 22,2 C 68 % 1037,3 hPa 0,0 l/m 2 min 0 min 683 W/m 9,7 km/h (2 Bft) 97,83 %
13.05.2019 10:14 12,7 C 21,1 C 22,2 C 68 % 1037,3 hPa 0,0 l/m 2 min 0 min 695 W/m 16,1 km/h (3 Bft) 95,35 %
13.05.2019 10:16 12,8 C 20,0 C 21,7 C 67 % 1037,3 hPa 0,0 l/m 2 min 0 min 700 W/m 16,1 km/h (3 Bft) 95,83 %
13.05.2019 10:18 12,9 C 20,0 C 22,2 C 66 % 1037,3 hPa 0,0 l/m 2 min 0 min 682 W/m 9,7 km/h (2 Bft) 95,74 %
13.05.2019 10:20 13,0 C 20,6 C 22,2 C 67 % 1037,3 hPa 0,0 l/m 2 min 0 min 699 W/m 9,7 km/h (2 Bft) 93,88 %
13.05.2019 10:22 13,1 C 20,0 C 22,2 C 66 % 1037,2 hPa 0,0 l/m 2 min 0 min 684 W/m 9,7 km/h (2 Bft) 95,83 %
13.05.2019 10:24 13,2 C 20,6 C 22,8 C 66 % 1037,3 hPa 0,0 l/m 2 min 0 min 704 W/m 9,7 km/h (2 Bft) 95,65 %
13.05.2019 10:26 13,3 C 20,6 C 23,3 C 66 % 1037,3 hPa 0,0 l/m 2 min 0 min 719 W/m 9,7 km/h (2 Bft) 93,62 %
13.05.2019 10:28 13,4 C 20,0 C 22,2 C 64 % 1037,3 hPa 0,0 l/m 2 min 0 min 656 W/m 9,7 km/h (2 Bft) 95,24 %
13.05.2019 10:30 13,4 C 19,4 C 21,7 C 64 % 1037,4 hPa 0,0 l/m 2 min 0 min 640 W/m 9,7 km/h (2 Bft) 93,88 %
13.05.2019 10:32 13,4 C 20,0 C 21,7 C 65 % 1037,4 hPa 0,0 l/m 2 min 0 min 645 W/m 6,4 km/h (2 Bft) 96,00 %
13.05.2019 10:34 13,5 C 20,0 C 21,1 C 63 % 1037,4 hPa 0,0 l/m 2 min 0 min 702 W/m 6,4 km/h (2 Bft) 95,74 %
13.05.2019 10:36 13,5 C 20,6 C 21,7 C 63 % 1037,4 hPa 0,0 l/m 2 min 0 min 717 W/m 9,7 km/h (2 Bft) 97,83 %
13.05.2019 10:38 13,6 C 20,6 C 21,7 C 63 % 1037,4 hPa 0,0 l/m 2 min 0 min 722 W/m 6,4 km/h (2 Bft) 95,24 %
13.05.2019 10:40 13,6 C 20,6 C 22,8 C 63 % 1037,4 hPa 0,0 l/m 2 min 0 min 750 W/m 12,9 km/h (3 Bft) 95,83 %
13.05.2019 10:42 13,7 C 20,0 C 21,7 C 62 % 1037,3 hPa 0,0 l/m 2 min 0 min 765 W/m 12,9 km/h (3 Bft) 95,92 %
13.05.2019 10:44 13,7 C 20,0 C 22,2 C 62 % 1037,3 hPa 0,0 l/m 2 min 0 min 715 W/m 9,7 km/h (2 Bft) 93,88 %
13.05.2019 10:46 13,8 C 21,1 C 22,8 C 63 % 1037,3 hPa 0,0 l/m 2 min 0 min 637 W/m 9,7 km/h (2 Bft) 95,74 %
13.05.2019 10:48 13,9 C 21,7 C 22,8 C 62 % 1037,3 hPa 0,0 l/m 2 min 0 min 703 W/m 6,4 km/h (2 Bft) 93,48 %
13.05.2019 10:50 14,0 C 22,2 C 22,8 C 63 % 1037,2 hPa 0,0 l/m 2 min 0 min 815 W/m 6,4 km/h (2 Bft) 95,24 %
13.05.2019 10:52 14,1 C 21,7 C 22,2 C 62 % 1037,2 hPa 0,0 l/m 2 min 0 min 777 W/m 9,7 km/h (2 Bft) 95,83 %
13.05.2019 10:54 14,2 C 20,0 C 21,1 C 61 % 1037,1 hPa 0,0 l/m 2 min 0 min 746 W/m 12,9 km/h (3 Bft) 93,88 %
13.05.2019 10:56 14,2 C 20,0 C 21,1 C 62 % 1037,3 hPa 0,0 l/m 2 min 0 min 588 W/m 9,7 km/h (2 Bft) 91,84 %
13.05.2019 10:58 14,2 C 20,0 C 21,1 C 61 % 1037,3 hPa 0,0 l/m 2 min 0 min 611 W/m 9,7 km/h (2 Bft) 97,87 %
13.05.2019 11:00 14,2 C 22,2 C 22,8 C 61 % 1037,3 hPa 0,0 l/m 2 min 0 min 792 W/m 6,4 km/h (2 Bft) 95,65 %
13.05.2019 11:02 14,3 C 22,2 C 23,9 C 61 % 1037,2 hPa 0,0 l/m 2 min 0 min 800 W/m 9,7 km/h (2 Bft) 95,24 %
13.05.2019 11:04 14,3 C 21,7 C 23,9 C 60 % 1037,3 hPa 0,0 l/m 2 min 0 min 808 W/m 9,7 km/h (2 Bft) 97,83 %
13.05.2019 11:06 14,4 C 22,2 C 23,9 C 58 % 1037,2 hPa 0,0 l/m 2 min 0 min 813 W/m 6,4 km/h (2 Bft) 98,00 %
13.05.2019 11:08 14,4 C 21,7 C 23,3 C 59 % 1037,3 hPa 0,0 l/m 2 min 0 min 737 W/m 9,7 km/h (2 Bft) 97,96 %
13.05.2019 11:10 14,5 C 21,1 C 22,8 C 58 % 1037,2 hPa 0,0 l/m 2 min 0 min 741 W/m 16,1 km/h (3 Bft) 97,87 %
13.05.2019 11:12 14,6 C 22,2 C 23,3 C 59 % 1037,2 hPa 0,0 l/m 2 min 0 min 782 W/m 16,1 km/h (3 Bft) 97,87 %
13.05.2019 11:14 14,7 C 23,3 C 24,4 C 59 % 1037,3 hPa 0,0 l/m 2 min 0 min 817 W/m 9,7 km/h (2 Bft) 97,87 %
13.05.2019 11:16 14,8 C 23,9 C 25,0 C 60 % 1037,2 hPa 0,0 l/m 2 min 0 min 844 W/m 9,7 km/h (2 Bft) 97,87 %
13.05.2019 11:18 14,9 C 23,9 C 25,6 C 59 % 1037,3 hPa 0,0 l/m 2 min 0 min 845 W/m 9,7 km/h (2 Bft) 95,24 %
13.05.2019 11:20 15,1 C 22,8 C 24,4 C 58 % 1037,3 hPa 0,0 l/m 2 min 0 min 848 W/m 9,7 km/h (2 Bft) 97,96 %
13.05.2019 11:22 15,1 C 23,9 C 24,4 C 57 % 1037,3 hPa 0,0 l/m 2 min 0 min 849 W/m 6,4 km/h (2 Bft) 95,92 %
13.05.2019 11:24 15,2 C 23,3 C 24,4 C 57 % 1037,3 hPa 0,0 l/m 2 min 0 min 849 W/m 6,4 km/h (2 Bft) 97,87 %
13.05.2019 11:26 15,3 C 23,3 C 25,0 C 57 % 1037,3 hPa 0,0 l/m 2 min 0 min 843 W/m 9,7 km/h (2 Bft) 95,74 %
13.05.2019 11:28 15,4 C 24,4 C 26,1 C 57 % 1037,3 hPa 0,0 l/m 2 min 0 min 854 W/m 6,4 km/h (2 Bft) 95,74 %
13.05.2019 11:30 15,4 C 23,9 C 25,6 C 55 % 1037,4 hPa 0,0 l/m 2 min 0 min 862 W/m 12,9 km/h (3 Bft) 95,24 %
13.05.2019 11:32 15,5 C 22,2 C 23,9 C 52 % 1037,3 hPa 0,0 l/m 2 min 0 min 832 W/m 16,1 km/h (3 Bft) 96,00 %
13.05.2019 11:34 15,5 C 22,8 C 23,9 C 53 % 1037,3 hPa 0,0 l/m 2 min 0 min 883 W/m 9,7 km/h (2 Bft) 95,83 %
13.05.2019 11:36 15,6 C 21,7 C 23,9 C 54 % 1037,3 hPa 0,0 l/m 2 min 0 min 846 W/m 9,7 km/h (2 Bft) 95,74 %
13.05.2019 11:38 15,6 C 23,3 C 25,0 C 54 % 1037,4 hPa 0,0 l/m 2 min 0 min 855 W/m 6,4 km/h (2 Bft) 93,62 %
13.05.2019 11:40 15,7 C 23,3 C 25,0 C 54 % 1037,3 hPa 0,0 l/m 2 min 0 min 865 W/m 6,4 km/h (2 Bft) 97,87 %
13.05.2019 11:42 15,7 C 23,3 C 25,6 C 53 % 1037,3 hPa 0,0 l/m 2 min 0 min 879 W/m 9,7 km/h (2 Bft) 95,12 %
13.05.2019 11:44 15,7 C 22,8 C 25,6 C 53 % 1037,3 hPa 0,0 l/m 2 min 0 min 876 W/m 9,7 km/h (2 Bft) 95,92 %
13.05.2019 11:46 15,7 C 23,3 C 26,1 C 53 % 1037,3 hPa 0,0 l/m 2 min 0 min 874 W/m 9,7 km/h (2 Bft) 95,92 %
13.05.2019 11:48 15,8 C 22,8 C 25,6 C 53 % 1037,2 hPa 0,0 l/m 2 min 0 min 880 W/m 12,9 km/h (3 Bft) 95,83 %
13.05.2019 11:50 15,8 C 23,3 C 26,1 C 53 % 1037,1 hPa 0,0 l/m 2 min 0 min 884 W/m 9,7 km/h (2 Bft) 93,62 %
13.05.2019 11:52 15,9 C 23,3 C 26,1 C 53 % 1037,2 hPa 0,0 l/m 2 min 0 min 869 W/m 16,1 km/h (3 Bft) 93,62 %
13.05.2019 11:54 15,9 C 22,2 C 25,0 C 53 % 1037,2 hPa 0,0 l/m 2 min 0 min 882 W/m 12,9 km/h (3 Bft) 95,12 %
13.05.2019 11:56 15,9 C 23,3 C 24,4 C 52 % 1037,2 hPa 0,0 l/m 2 min 0 min 890 W/m 6,4 km/h (2 Bft) 93,88 %
13.05.2019 11:58 16,1 C 24,4 C 25,6 C 52 % 1037,1 hPa 0,0 l/m 2 min 0 min 882 W/m 12,9 km/h (3 Bft) 96,00 %
13.05.2019 12:00 16,2 C 24,4 C 26,7 C 54 % 1037,1 hPa 0,0 l/m 2 min 0 min 887 W/m 12,9 km/h (3 Bft) 95,65 %
13.05.2019 12:02 16,3 C 23,9 C 27,2 C 53 % 1037,1 hPa 0,0 l/m 2 min 0 min 914 W/m 12,9 km/h (3 Bft) 93,75 %
13.05.2019 12:04 16,4 C 23,9 C 27,2 C 53 % 1037,0 hPa 0,0 l/m 2 min 0 min 903 W/m 12,9 km/h (3 Bft) 95,74 %
13.05.2019 12:08 16,6 C 23,9 C 25,6 C 51 % 1037,1 hPa 0,0 l/m 4 min 0 min 908 W/m 12,9 km/h (3 Bft) 94,68 %
13.05.2019 12:10 16,6 C 23,3 C 25,6 C 50 % 1037,1 hPa 0,0 l/m 2 min 0 min 911 W/m 12,9 km/h (3 Bft) 95,65 %
13.05.2019 12:12 16,7 C 23,9 C 25,6 C 49 % 1037,1 hPa 0,0 l/m 2 min 0 min 896 W/m 12,9 km/h (3 Bft) 95,24 %
13.05.2019 12:14 16,7 C 23,9 C 26,1 C 49 % 1037,1 hPa 0,0 l/m 2 min 0 min 913 W/m 12,9 km/h (3 Bft) 95,83 %
13.05.2019 12:16 16,7 C 24,4 C 26,1 C 49 % 1037,0 hPa 0,0 l/m 2 min 0 min 922 W/m 9,7 km/h (2 Bft) 95,92 %
13.05.2019 12:18 16,8 C 24,4 C 26,1 C 49 % 1037,0 hPa 0,0 l/m 2 min 0 min 925 W/m 9,7 km/h (2 Bft) 95,92 %
13.05.2019 12:20 16,8 C 23,9 C 26,7 C 47 % 1037,0 hPa 0,0 l/m 2 min 0 min 911 W/m 16,1 km/h (3 Bft) 95,65 %
13.05.2019 12:22 16,8 C 23,3 C 26,1 C 48 % 1037,0 hPa 0,0 l/m 2 min 0 min 862 W/m 9,7 km/h (2 Bft) 97,87 %
13.05.2019 12:24 16,8 C 23,3 C 26,7 C 47 % 1037,0 hPa 0,0 l/m 2 min 0 min 907 W/m 12,9 km/h (3 Bft) 97,67 %
13.05.2019 12:26 16,8 C 23,9 C 26,7 C 49 % 1037,0 hPa 0,0 l/m 2 min 0 min 908 W/m 12,9 km/h (3 Bft) 95,83 %
13.05.2019 12:28 16,8 C 23,3 C 26,7 C 48 % 1037,0 hPa 0,0 l/m 2 min 0 min 931 W/m 12,9 km/h (3 Bft) 97,96 %
13.05.2019 12:30 16,8 C 23,3 C 26,1 C 46 % 1037,0 hPa 0,0 l/m 2 min 0 min 919 W/m 9,7 km/h (2 Bft) 97,92 %
13.05.2019 12:32 16,8 C 23,9 C 26,7 C 49 % 1037,0 hPa 0,0 l/m 2 min 0 min 913 W/m 9,7 km/h (2 Bft) 97,87 %
13.05.2019 12:34 16,9 C 25,0 C 27,2 C 49 % 1037,0 hPa 0,0 l/m 2 min 0 min 931 W/m 9,7 km/h (2 Bft) 100,00 %
13.05.2019 12:36 16,9 C 24,4 C 27,8 C 48 % 1037,0 hPa 0,0 l/m 2 min 0 min 935 W/m 9,7 km/h (2 Bft) 95,83 %
13.05.2019 12:38 17,0 C 25,0 C 27,8 C 47 % 1037,0 hPa 0,0 l/m 2 min 0 min 936 W/m 6,4 km/h (2 Bft) 95,92 %
13.05.2019 12:40 17,0 C 23,3 C 26,7 C 46 % 1037,0 hPa 0,0 l/m 2 min 0 min 935 W/m 12,9 km/h (3 Bft) 97,87 %
13.05.2019 12:42 17,0 C 23,3 C 26,1 C 45 % 1037,0 hPa 0,0 l/m 2 min 0 min 939 W/m 16,1 km/h (3 Bft) 97,96 %
13.05.2019 12:44 17,1 C 23,9 C 26,1 C 47 % 1037,0 hPa 0,0 l/m 2 min 0 min 933 W/m 6,4 km/h (2 Bft) 97,83 %
13.05.2019 12:46 17,1 C 23,3 C 25,6 C 46 % 1036,9 hPa 0,0 l/m 2 min 0 min 930 W/m 9,7 km/h (2 Bft) 97,87 %
13.05.2019 12:48 17,1 C 23,3 C 26,7 C 44 % 1036,9 hPa 0,0 l/m 2 min 0 min 941 W/m 12,9 km/h (3 Bft) 95,12 %
13.05.2019 12:50 17,1 C 23,3 C 26,1 C 43 % 1036,9 hPa 0,0 l/m 2 min 0 min 943 W/m 12,9 km/h (3 Bft) 95,92 %
13.05.2019 12:52 17,1 C 22,8 C 26,1 C 44 % 1036,9 hPa 0,0 l/m 2 min 0 min 946 W/m 12,9 km/h (3 Bft) 96,00 %
13.05.2019 12:54 17,1 C 22,2 C 26,1 C 44 % 1036,8 hPa 0,0 l/m 2 min 0 min 947 W/m 12,9 km/h (3 Bft) 95,83 %
13.05.2019 12:56 17,1 C 22,8 C 26,7 C 45 % 1036,7 hPa 0,0 l/m 2 min 0 min 946 W/m 9,7 km/h (2 Bft) 93,48 %
13.05.2019 12:58 17,1 C 23,3 C 27,8 C 46 % 1036,7 hPa 0,0 l/m 2 min 0 min 948 W/m 19,3 km/h (3 Bft) 97,62 %
13.05.2019 13:00 17,2 C 23,3 C 27,8 C 45 % 1036,7 hPa 0,0 l/m 2 min 0 min 950 W/m 9,7 km/h (2 Bft) 93,62 %
13.05.2019 13:02 17,2 C 23,9 C 28,9 C 45 % 1036,7 hPa 0,0 l/m 2 min 0 min 947 W/m 9,7 km/h (2 Bft) 95,92 %
13.05.2019 13:04 17,2 C 23,9 C 28,3 C 45 % 1036,7 hPa 0,0 l/m 2 min 0 min 945 W/m 9,7 km/h (2 Bft) 93,62 %
13.05.2019 13:06 17,3 C 23,3 C 28,3 C 47 % 1036,6 hPa 0,0 l/m 2 min 0 min 946 W/m 9,7 km/h (2 Bft) 94,00 %
13.05.2019 13:08 17,4 C 23,3 C 27,8 C 45 % 1036,6 hPa 0,0 l/m 2 min 0 min 949 W/m 9,7 km/h (2 Bft) 93,48 %
13.05.2019 13:10 17,4 C 23,3 C 27,2 C 43 % 1036,5 hPa 0,0 l/m 2 min 0 min 950 W/m 12,9 km/h (3 Bft) 95,74 %
13.05.2019 13:12 17,4 C 23,3 C 27,8 C 46 % 1036,6 hPa 0,0 l/m 2 min 0 min 952 W/m 12,9 km/h (3 Bft) 95,74 %
13.05.2019 13:14 17,5 C 24,4 C 28,3 C 47 % 1036,6 hPa 0,0 l/m 2 min 0 min 948 W/m 9,7 km/h (2 Bft) 97,62 %
13.05.2019 13:16 17,5 C 23,3 C 28,3 C 45 % 1036,6 hPa 0,0 l/m 2 min 0 min 950 W/m 12,9 km/h (3 Bft) 95,92 %
13.05.2019 13:18 17,6 C 23,3 C 27,8 C 44 % 1036,6 hPa 0,0 l/m 2 min 0 min 951 W/m 9,7 km/h (2 Bft) 95,92 %
13.05.2019 13:20 17,6 C 23,3 C 28,3 C 45 % 1036,6 hPa 0,0 l/m 2 min 0 min 952 W/m 9,7 km/h (2 Bft) 95,74 %
13.05.2019 13:22 17,7 C 23,9 C 28,9 C 46 % 1036,5 hPa 0,0 l/m 2 min 0 min 950 W/m 9,7 km/h (2 Bft) 93,62 %
13.05.2019 13:24 17,7 C 23,3 C 28,9 C 46 % 1036,5 hPa 0,0 l/m 2 min 0 min 949 W/m 12,9 km/h (3 Bft) 95,74 %
13.05.2019 13:26 17,8 C 24,4 C 28,9 C 46 % 1036,5 hPa 0,0 l/m 2 min 0 min 948 W/m 9,7 km/h (2 Bft) 95,24 %
13.05.2019 13:28 17,8 C 22,8 C 27,8 C 43 % 1036,5 hPa 0,0 l/m 2 min 0 min 947 W/m 16,1 km/h (3 Bft) 93,88 %
13.05.2019 13:30 17,8 C 22,8 C 27,8 C 45 % 1036,5 hPa 0,0 l/m 2 min 0 min 946 W/m 9,7 km/h (2 Bft) 95,92 %
13.05.2019 13:32 17,8 C 23,9 C 27,8 C 45 % 1036,5 hPa 0,0 l/m 2 min 0 min 951 W/m 6,4 km/h (2 Bft) 95,74 %
13.05.2019 13:34 17,8 C 23,3 C 27,8 C 44 % 1036,5 hPa 0,0 l/m 2 min 0 min 952 W/m 16,1 km/h (3 Bft) 97,87 %
13.05.2019 13:36 17,8 C 22,8 C 28,3 C 44 % 1036,4 hPa 0,0 l/m 2 min 0 min 953 W/m 9,7 km/h (2 Bft) 97,56 %
13.05.2019 13:38 17,8 C 22,8 C 28,3 C 44 % 1036,5 hPa 0,0 l/m 2 min 0 min 944 W/m 16,1 km/h (3 Bft) 97,96 %
13.05.2019 13:40 17,8 C 22,2 C 27,8 C 44 % 1036,4 hPa 0,0 l/m 2 min 0 min 949 W/m 9,7 km/h (2 Bft) 97,87 %
13.05.2019 13:42 17,7 C 21,7 C 26,1 C 43 % 1036,3 hPa 0,0 l/m 2 min 0 min 952 W/m 9,7 km/h (2 Bft) 97,96 %
13.05.2019 13:44 17,7 C 22,8 C 27,2 C 46 % 1036,4 hPa 0,0 l/m 2 min 0 min 949 W/m 12,9 km/h (3 Bft) 97,87 %
13.05.2019 13:46 17,8 C 23,9 C 28,3 C 48 % 1036,4 hPa 0,0 l/m 2 min 0 min 952 W/m 6,4 km/h (2 Bft) 97,83 %
13.05.2019 13:48 17,9 C 23,9 C 28,3 C 47 % 1036,4 hPa 0,0 l/m 2 min 0 min 941 W/m 9,7 km/h (2 Bft) 97,87 %
13.05.2019 13:50 18,0 C 24,4 C 28,9 C 47 % 1036,3 hPa 0,0 l/m 2 min 0 min 945 W/m 9,7 km/h (2 Bft) 93,62 %
13.05.2019 13:52 18,1 C 23,9 C 27,8 C 47 % 1036,4 hPa 0,0 l/m 2 min 0 min 943 W/m 9,7 km/h (2 Bft) 97,87 %
13.05.2019 13:54 18,1 C 23,9 C 28,3 C 45 % 1036,3 hPa 0,0 l/m 2 min 0 min 942 W/m 12,9 km/h (3 Bft) 97,87 %
13.05.2019 13:56 18,2 C 24,4 C 28,9 C 45 % 1036,3 hPa 0,0 l/m 2 min 0 min 944 W/m 19,3 km/h (3 Bft) 100,00 %
13.05.2019 13:58 18,2 C 23,3 C 28,3 C 44 % 1036,3 hPa 0,0 l/m 2 min 0 min 944 W/m 12,9 km/h (3 Bft) 97,83 %
13.05.2019 14:00 18,2 C 23,3 C 28,3 C 43 % 1036,2 hPa 0,0 l/m 2 min 0 min 943 W/m 9,7 km/h (2 Bft) 100,00 %
13.05.2019 14:02 18,2 C 22,8 C 27,8 C 42 % 1036,1 hPa 0,0 l/m 2 min 0 min 947 W/m 9,7 km/h (2 Bft) 95,74 %
13.05.2019 14:04 18,2 C 22,8 C 27,8 C 43 % 1036,1 hPa 0,0 l/m 2 min 0 min 940 W/m 12,9 km/h (3 Bft) 100,00 %
13.05.2019 14:06 18,2 C 22,8 C 27,8 C 44 % 1036,0 hPa 0,0 l/m 2 min 0 min 943 W/m 16,1 km/h (3 Bft) 100,00 %
13.05.2019 14:08 18,2 C 23,3 C 28,3 C 44 % 1036,0 hPa 0,0 l/m 2 min 0 min 944 W/m 9,7 km/h (2 Bft) 100,00 %
13.05.2019 14:10 18,2 C 22,8 C 27,8 C 43 % 1036,0 hPa 0,0 l/m 2 min 0 min 938 W/m 12,9 km/h (3 Bft) 100,00 %
13.05.2019 14:12 18,2 C 22,2 C 26,7 C 42 % 1035,9 hPa 0,0 l/m 2 min 0 min 938 W/m 12,9 km/h (3 Bft) 97,83 %
13.05.2019 14:14 18,1 C 22,8 C 27,8 C 45 % 1035,9 hPa 0,0 l/m 2 min 0 min 940 W/m 9,7 km/h (2 Bft) 100,00 %
13.05.2019 14:16 18,2 C 23,9 C 28,9 C 46 % 1036,0 hPa 0,0 l/m 2 min 0 min 939 W/m 9,7 km/h (2 Bft) 100,00 %
13.05.2019 14:18 18,3 C 24,4 C 28,9 C 44 % 1035,9 hPa 0,0 l/m 2 min 0 min 937 W/m 6,4 km/h (2 Bft) 100,00 %
13.05.2019 14:20 18,4 C 23,9 C 28,9 C 46 % 1036,0 hPa 0,0 l/m 2 min 0 min 937 W/m 12,9 km/h (3 Bft) 100,00 %
13.05.2019 14:22 18,6 C 23,9 C 28,3 C 42 % 1036,1 hPa 0,0 l/m 2 min 0 min 935 W/m 16,1 km/h (3 Bft) 100,00 %
13.05.2019 14:24 18,6 C 23,3 C 28,9 C 43 % 1036,0 hPa 0,0 l/m 2 min 0 min 935 W/m 12,9 km/h (3 Bft) 97,87 %
13.05.2019 14:26 18,6 C 23,3 C 28,3 C 43 % 1035,9 hPa 0,0 l/m 2 min 0 min 930 W/m 16,1 km/h (3 Bft) 100,00 %
13.05.2019 14:28 18,6 C 23,3 C 27,2 C 41 % 1035,9 hPa 0,0 l/m 2 min 0 min 929 W/m 9,7 km/h (2 Bft) 100,00 %
13.05.2019 14:30 18,7 C 23,9 C 27,2 C 42 % 1035,8 hPa 0,0 l/m 2 min 0 min 929 W/m 9,7 km/h (2 Bft) 100,00 %
13.05.2019 14:32 18,7 C 22,8 C 26,1 C 42 % 1035,9 hPa 0,0 l/m 2 min 0 min 928 W/m 16,1 km/h (3 Bft) 100,00 %
13.05.2019 14:34 18,7 C 23,3 C 25,6 C 42 % 1035,8 hPa 0,0 l/m 2 min 0 min 928 W/m 9,7 km/h (2 Bft) 100,00 %
13.05.2019 14:36 18,7 C 22,8 C 24,4 C 41 % 1035,7 hPa 0,0 l/m 2 min 0 min 924 W/m 12,9 km/h (3 Bft) 100,00 %
13.05.2019 14:38 18,8 C 23,3 C 25,6 C 44 % 1035,7 hPa 0,0 l/m 2 min 0 min 924 W/m 12,9 km/h (3 Bft) 100,00 %
13.05.2019 14:40 18,8 C 22,8 C 26,1 C 41 % 1035,7 hPa 0,0 l/m 2 min 0 min 919 W/m 9,7 km/h (2 Bft) 97,87 %
13.05.2019 14:42 18,8 C 22,8 C 25,6 C 42 % 1035,7 hPa 0,0 l/m 2 min 0 min 917 W/m 12,9 km/h (3 Bft) 95,74 %
13.05.2019 14:44 18,8 C 23,3 C 23,9 C 43 % 1035,7 hPa 0,0 l/m 2 min 0 min 913 W/m 9,7 km/h (2 Bft) 97,87 %
13.05.2019 14:46 18,9 C 23,3 C 23,3 C 44 % 1035,6 hPa 0,0 l/m 2 min 0 min 913 W/m 9,7 km/h (2 Bft) 97,83 %
13.05.2019 14:48 18,9 C 23,3 C 21,7 C 42 % 1035,6 hPa 0,0 l/m 2 min 0 min 906 W/m 12,9 km/h (3 Bft) 97,87 %
13.05.2019 14:50 19,0 C 23,3 C 21,1 C 43 % 1035,6 hPa 0,0 l/m 2 min 0 min 907 W/m 9,7 km/h (2 Bft) 97,87 %
13.05.2019 14:52 19,0 C 22,8 C 20,6 C 41 % 1035,6 hPa 0,0 l/m 2 min 0 min 905 W/m 12,9 km/h (3 Bft) 97,87 %
13.05.2019 14:54 19,0 C 22,8 C 20,6 C 40 % 1035,5 hPa 0,0 l/m 2 min 0 min 905 W/m 12,9 km/h (3 Bft) 97,87 %
13.05.2019 14:56 19,0 C 22,8 C 20,6 C 42 % 1035,5 hPa 0,0 l/m 2 min 0 min 901 W/m 12,9 km/h (3 Bft) 95,65 %
13.05.2019 14:58 19,0 C 22,2 C 20,6 C 39 % 1035,5 hPa 0,0 l/m 2 min 0 min 898 W/m 16,1 km/h (3 Bft) 97,87 %
13.05.2019 15:00 19,0 C 22,2 C 19,4 C 39 % 1035,4 hPa 0,0 l/m 2 min 0 min 898 W/m 9,7 km/h (2 Bft) 97,87 %
13.05.2019 15:02 19,0 C 22,8 C 19,4 C 43 % 1035,5 hPa 0,0 l/m 2 min 0 min 893 W/m 12,9 km/h (3 Bft) 97,87 %
13.05.2019 15:04 19,1 C 23,3 C 19,4 C 43 % 1035,5 hPa 0,0 l/m 2 min 0 min 891 W/m 9,7 km/h (2 Bft) 97,87 %
13.05.2019 15:06 19,1 C 23,3 C 18,9 C 45 % 1035,5 hPa 0,0 l/m 2 min 0 min 884 W/m 9,7 km/h (2 Bft) 97,87 %
13.05.2019 15:08 19,2 C 23,3 C 19,4 C 46 % 1035,4 hPa 0,0 l/m 2 min 0 min 886 W/m 9,7 km/h (2 Bft) 97,83 %
13.05.2019 15:10 19,2 C 22,8 C 19,4 C 42 % 1035,4 hPa 0,0 l/m 2 min 0 min 884 W/m 12,9 km/h (3 Bft) 97,87 %
13.05.2019 15:12 19,2 C 22,2 C 18,9 C 43 % 1035,4 hPa 0,0 l/m 2 min 0 min 882 W/m 16,1 km/h (3 Bft) 93,62 %
13.05.2019 15:14 19,2 C 22,2 C 18,9 C 40 % 1035,5 hPa 0,0 l/m 2 min 0 min 881 W/m 12,9 km/h (3 Bft) 97,87 %
13.05.2019 15:16 19,3 C 22,8 C 18,3 C 41 % 1035,4 hPa 0,0 l/m 2 min 0 min 880 W/m 6,4 km/h (2 Bft) 97,87 %
13.05.2019 15:18 19,3 C 22,2 C 18,9 C 40 % 1035,4 hPa 0,0 l/m 2 min 0 min 873 W/m 9,7 km/h (2 Bft) 95,74 %
13.05.2019 15:20 19,3 C 22,2 C 18,3 C 39 % 1035,3 hPa 0,0 l/m 2 min 0 min 871 W/m 6,4 km/h (2 Bft) 93,48 %
13.05.2019 15:22 19,3 C 22,8 C 18,9 C 41 % 1035,3 hPa 0,0 l/m 2 min 0 min 867 W/m 6,4 km/h (2 Bft) 95,74 %
13.05.2019 15:24 19,3 C 22,2 C 18,9 C 42 % 1035,3 hPa 0,0 l/m 2 min 0 min 865 W/m 16,1 km/h (3 Bft) 93,62 %
13.05.2019 15:26 19,3 C 22,2 C 18,9 C 40 % 1035,3 hPa 0,0 l/m 2 min 0 min 860 W/m 9,7 km/h (2 Bft) 95,74 %
13.05.2019 15:28 19,3 C 21,7 C 18,3 C 39 % 1035,3 hPa 0,0 l/m 2 min 0 min 851 W/m 16,1 km/h (3 Bft) 95,74 %
13.05.2019 15:30 19,3 C 21,7 C 17,8 C 41 % 1035,2 hPa 0,0 l/m 2 min 0 min 857 W/m 12,9 km/h (3 Bft) 97,87 %
13.05.2019 15:32 19,3 C 22,2 C 18,3 C 42 % 1035,2 hPa 0,0 l/m 2 min 0 min 852 W/m 9,7 km/h (2 Bft) 97,83 %
13.05.2019 15:34 19,3 C 22,2 C 18,3 C 42 % 1035,1 hPa 0,0 l/m 2 min 0 min 846 W/m 12,9 km/h (3 Bft) 97,87 %
13.05.2019 15:36 19,4 C 22,8 C 18,3 C 44 % 1035,1 hPa 0,0 l/m 2 min 0 min 844 W/m 9,7 km/h (2 Bft) 95,74 %
13.05.2019 15:38 19,4 C 21,7 C 18,3 C 40 % 1035,0 hPa 0,0 l/m 2 min 0 min 841 W/m 12,9 km/h (3 Bft) 97,87 %
13.05.2019 15:40 19,4 C 21,7 C 18,3 C 41 % 1035,0 hPa 0,0 l/m 2 min 0 min 839 W/m 9,7 km/h (2 Bft) 95,74 %
13.05.2019 15:42 19,4 C 21,1 C 18,3 C 40 % 1035,0 hPa 0,0 l/m 2 min 0 min 833 W/m 9,7 km/h (2 Bft) 97,87 %
13.05.2019 15:44 19,5 C 21,1 C 18,3 C 42 % 1035,0 hPa 0,0 l/m 2 min 0 min 829 W/m 9,7 km/h (2 Bft) 95,65 %
13.05.2019 15:46 19,5 C 21,1 C 18,3 C 40 % 1035,0 hPa 0,0 l/m 2 min 0 min 826 W/m 9,7 km/h (2 Bft) 97,87 %
13.05.2019 15:48 19,5 C 20,6 C 18,3 C 39 % 1035,1 hPa 0,0 l/m 2 min 0 min 822 W/m 12,9 km/h (3 Bft) 97,87 %
13.05.2019 15:50 19,4 C 20,0 C 18,3 C 36 % 1035,0 hPa 0,0 l/m 2 min 0 min 818 W/m 16,1 km/h (3 Bft) 97,87 %
13.05.2019 15:52 19,4 C 20,0 C 18,3 C 38 % 1035,1 hPa 0,0 l/m 2 min 0 min 813 W/m 16,1 km/h (3 Bft) 97,87 %
13.05.2019 15:54 19,3 C 20,6 C 18,3 C 39 % 1035,1 hPa 0,0 l/m 2 min 0 min 812 W/m 19,3 km/h (3 Bft) 100,00 %
13.05.2019 15:56 19,3 C 20,6 C 18,3 C 42 % 1035,1 hPa 0,0 l/m 2 min 0 min 808 W/m 16,1 km/h (3 Bft) 100,00 %
13.05.2019 15:58 19,3 C 20,6 C 18,3 C 40 % 1035,0 hPa 0,0 l/m 2 min 0 min 805 W/m 9,7 km/h (2 Bft) 100,00 %
13.05.2019 16:00 19,3 C 20,6 C 18,3 C 41 % 1035,0 hPa 0,0 l/m 2 min 0 min 800 W/m 9,7 km/h (2 Bft) 100,00 %
13.05.2019 16:02 19,3 C 20,6 C 18,3 C 41 % 1034,8 hPa 0,0 l/m 2 min 0 min 798 W/m 12,9 km/h (3 Bft) 100,00 %
13.05.2019 16:04 19,3 C 20,0 C 17,8 C 37 % 1034,8 hPa 0,0 l/m 2 min 0 min 791 W/m 9,7 km/h (2 Bft) 100,00 %
13.05.2019 16:06 19,3 C 20,6 C 18,3 C 40 % 1034,7 hPa 0,0 l/m 2 min 0 min 786 W/m 12,9 km/h (3 Bft) 100,00 %
13.05.2019 16:08 19,3 C 20,0 C 18,3 C 39 % 1034,7 hPa 0,0 l/m 2 min 0 min 782 W/m 9,7 km/h (2 Bft) 97,83 %
13.05.2019 16:10 19,3 C 20,0 C 18,3 C 38 % 1034,7 hPa 0,0 l/m 2 min 0 min 773 W/m 12,9 km/h (3 Bft) 100,00 %
13.05.2019 16:12 19,3 C 20,0 C 18,3 C 38 % 1034,8 hPa 0,0 l/m 2 min 0 min 777 W/m 12,9 km/h (3 Bft) 100,00 %
13.05.2019 16:14 19,3 C 20,0 C 18,3 C 39 % 1034,8 hPa 0,0 l/m 2 min 0 min 771 W/m 9,7 km/h (2 Bft) 100,00 %
13.05.2019 16:16 19,4 C 20,0 C 18,3 C 38 % 1034,8 hPa 0,0 l/m 2 min 0 min 769 W/m 12,9 km/h (3 Bft) 100,00 %
13.05.2019 16:18 19,4 C 20,0 C 18,3 C 43 % 1034,7 hPa 0,0 l/m 2 min 0 min 766 W/m 9,7 km/h (2 Bft) 100,00 %
13.05.2019 16:20 19,4 C 19,4 C 18,3 C 40 % 1034,7 hPa 0,0 l/m 2 min 0 min 756 W/m 16,1 km/h (3 Bft) 100,00 %
13.05.2019 16:22 19,5 C 19,4 C 18,3 C 39 % 1034,7 hPa 0,0 l/m 2 min 0 min 749 W/m 19,3 km/h (3 Bft) 97,87 %
13.05.2019 16:24 19,5 C 19,4 C 18,3 C 38 % 1034,6 hPa 0,0 l/m 2 min 0 min 737 W/m 12,9 km/h (3 Bft) 100,00 %
13.05.2019 16:26 19,4 C 18,9 C 18,3 C 37 % 1034,6 hPa 0,0 l/m 2 min 0 min 752 W/m 12,9 km/h (3 Bft) 100,00 %
13.05.2019 16:28 19,4 C 18,3 C 18,3 C 39 % 1034,6 hPa 0,0 l/m 2 min 0 min 742 W/m 12,9 km/h (3 Bft) 97,87 %
13.05.2019 16:30 19,4 C 18,3 C 18,3 C 38 % 1034,6 hPa 0,0 l/m 2 min 0 min 698 W/m 9,7 km/h (2 Bft) 100,00 %
13.05.2019 16:32 19,4 C 18,9 C 18,3 C 40 % 1034,6 hPa 0,0 l/m 2 min 0 min 701 W/m 9,7 km/h (2 Bft) 97,83 %
13.05.2019 16:34 19,4 C 18,9 C 18,3 C 38 % 1034,6 hPa 0,0 l/m 2 min 0 min 729 W/m 12,9 km/h (3 Bft) 97,87 %
13.05.2019 16:36 19,4 C 18,9 C 18,3 C 42 % 1034,6 hPa 0,0 l/m 2 min 0 min 717 W/m 12,9 km/h (3 Bft) 100,00 %
13.05.2019 16:38 19,5 C 18,9 C 17,8 C 39 % 1034,6 hPa 0,0 l/m 2 min 0 min 710 W/m 16,1 km/h (3 Bft) 100,00 %
13.05.2019 16:40 19,6 C 18,9 C 17,8 C 38 % 1034,6 hPa 0,0 l/m 2 min 0 min 695 W/m 12,9 km/h (3 Bft) 100,00 %
13.05.2019 16:42 19,6 C 18,9 C 17,8 C 38 % 1034,5 hPa 0,0 l/m 2 min 0 min 688 W/m 12,9 km/h (3 Bft) 95,65 %
13.05.2019 16:44 19,6 C 18,9 C 17,8 C 36 % 1034,5 hPa 0,0 l/m 2 min 0 min 702 W/m 19,3 km/h (3 Bft) 97,87 %
13.05.2019 16:46 19,7 C 18,9 C 17,8 C 38 % 1034,4 hPa 0,0 l/m 2 min 0 min 696 W/m 9,7 km/h (2 Bft) 95,74 %
13.05.2019 16:48 19,7 C 18,9 C 17,8 C 39 % 1034,4 hPa 0,0 l/m 2 min 0 min 694 W/m 6,4 km/h (2 Bft) 97,87 %
13.05.2019 16:50 19,7 C 18,9 C 17,8 C 38 % 1034,4 hPa 0,0 l/m 2 min 0 min 684 W/m 9,7 km/h (2 Bft) 97,87 %
13.05.2019 16:52 19,7 C 18,9 C 17,8 C 39 % 1034,3 hPa 0,0 l/m 2 min 0 min 678 W/m 12,9 km/h (3 Bft) 97,87 %
13.05.2019 16:54 19,7 C 18,9 C 17,8 C 38 % 1034,4 hPa 0,0 l/m 2 min 0 min 680 W/m 12,9 km/h (3 Bft) 97,83 %
13.05.2019 16:56 19,8 C 18,9 C 18,3 C 39 % 1034,4 hPa 0,0 l/m 2 min 0 min 660 W/m 16,1 km/h (3 Bft) 95,74 %
13.05.2019 16:58 19,8 C 18,9 C 17,8 C 38 % 1034,5 hPa 0,0 l/m 2 min 0 min 665 W/m 12,9 km/h (3 Bft) 97,87 %
13.05.2019 17:00 19,8 C 18,9 C 17,8 C 37 % 1034,4 hPa 0,0 l/m 2 min 0 min 660 W/m 9,7 km/h (2 Bft) 97,87 %
13.05.2019 17:02 19,8 C 18,9 C 17,8 C 37 % 1034,4 hPa 0,0 l/m 2 min 0 min 657 W/m 22,5 km/h (4 Bft) 97,87 %
13.05.2019 17:04 19,7 C 18,9 C 17,8 C 38 % 1034,4 hPa 0,0 l/m 2 min 0 min 645 W/m 16,1 km/h (3 Bft) 97,87 %
13.05.2019 17:06 19,7 C 18,9 C 17,8 C 39 % 1034,4 hPa 0,0 l/m 2 min 0 min 632 W/m 22,5 km/h (4 Bft) 97,83 %
13.05.2019 17:08 19,7 C 18,3 C 17,8 C 36 % 1034,4 hPa 0,0 l/m 2 min 0 min 633 W/m 9,7 km/h (2 Bft) 97,87 %
13.05.2019 17:10 19,7 C 18,3 C 17,8 C 35 % 1034,4 hPa 0,0 l/m 2 min 0 min 637 W/m 9,7 km/h (2 Bft) 95,74 %
13.05.2019 17:12 19,6 C 18,3 C 17,8 C 36 % 1034,4 hPa 0,0 l/m 2 min 0 min 635 W/m 19,3 km/h (3 Bft) 95,74 %
13.05.2019 17:14 19,6 C 18,9 C 17,8 C 39 % 1034,3 hPa 0,0 l/m 2 min 0 min 628 W/m 16,1 km/h (3 Bft) 97,87 %
13.05.2019 17:16 19,6 C 18,9 C 17,8 C 36 % 1034,3 hPa 0,0 l/m 2 min 0 min 625 W/m 12,9 km/h (3 Bft) 95,74 %
13.05.2019 17:18 19,6 C 18,9 C 17,8 C 39 % 1034,3 hPa 0,0 l/m 2 min 0 min 612 W/m 6,4 km/h (2 Bft) 97,83 %
13.05.2019 17:20 19,6 C 18,9 C 17,8 C 36 % 1034,3 hPa 0,0 l/m 2 min 0 min 600 W/m 16,1 km/h (3 Bft) 97,87 %
13.05.2019 17:22 19,5 C 18,3 C 17,8 C 37 % 1034,3 hPa 0,0 l/m 2 min 0 min 593 W/m 19,3 km/h (3 Bft) 95,74 %
13.05.2019 17:24 19,5 C 18,3 C 17,8 C 38 % 1034,3 hPa 0,0 l/m 2 min 0 min 594 W/m 12,9 km/h (3 Bft) 97,87 %
13.05.2019 17:26 19,4 C 18,3 C 17,8 C 38 % 1034,3 hPa 0,0 l/m 2 min 0 min 588 W/m 9,7 km/h (2 Bft) 95,74 %
13.05.2019 17:28 19,4 C 18,3 C 17,8 C 38 % 1034,3 hPa 0,0 l/m 2 min 0 min 585 W/m 25,7 km/h (4 Bft) 97,87 %
13.05.2019 17:30 19,4 C 18,3 C 17,8 C 38 % 1034,2 hPa 0,0 l/m 2 min 0 min 573 W/m 16,1 km/h (3 Bft) 97,83 %
13.05.2019 17:32 19,4 C 18,3 C 17,8 C 37 % 1034,3 hPa 0,0 l/m 2 min 0 min 570 W/m 16,1 km/h (3 Bft) 95,74 %
13.05.2019 17:34 19,3 C 18,3 C 17,8 C 36 % 1034,2 hPa 0,0 l/m 2 min 0 min 572 W/m 22,5 km/h (4 Bft) 95,74 %
13.05.2019 17:36 19,3 C 18,3 C 17,8 C 38 % 1034,2 hPa 0,0 l/m 2 min 0 min 568 W/m 16,1 km/h (3 Bft) 91,49 %
13.05.2019 17:38 19,3 C 18,3 C 17,8 C 39 % 1034,2 hPa 0,0 l/m 2 min 0 min 560 W/m 9,7 km/h (2 Bft) 93,62 %
13.05.2019 17:40 19,3 C 18,3 C 17,8 C 38 % 1034,2 hPa 0,0 l/m 2 min 0 min 554 W/m 9,7 km/h (2 Bft) 93,62 %
13.05.2019 17:42 19,3 C 18,3 C 17,8 C 39 % 1034,2 hPa 0,0 l/m 2 min 0 min 548 W/m 9,7 km/h (2 Bft) 91,30 %
13.05.2019 17:44 19,3 C 18,3 C 18,3 C 39 % 1034,2 hPa 0,0 l/m 2 min 0 min 543 W/m 6,4 km/h (2 Bft) 93,62 %
13.05.2019 17:46 19,3 C 18,3 C 18,3 C 38 % 1034,1 hPa 0,0 l/m 2 min 0 min 526 W/m 9,7 km/h (2 Bft) 93,62 %
13.05.2019 17:48 19,3 C 18,3 C 17,8 C 39 % 1034,1 hPa 0,0 l/m 2 min 0 min 533 W/m 6,4 km/h (2 Bft) 93,62 %
13.05.2019 17:50 19,3 C 17,8 C 17,2 C 38 % 1034,0 hPa 0,0 l/m 2 min 0 min 526 W/m 9,7 km/h (2 Bft) 95,74 %
13.05.2019 17:52 19,3 C 18,3 C 17,2 C 37 % 1034,0 hPa 0,0 l/m 2 min 0 min 507 W/m 16,1 km/h (3 Bft) 95,65 %
13.05.2019 17:54 19,2 C 17,8 C 17,2 C 37 % 1034,0 hPa 0,0 l/m 2 min 0 min 516 W/m 12,9 km/h (3 Bft) 95,74 %
13.05.2019 17:56 19,2 C 18,3 C 17,2 C 38 % 1034,0 hPa 0,0 l/m 2 min 0 min 511 W/m 9,7 km/h (2 Bft) 95,74 %
13.05.2019 17:58 19,1 C 17,8 C 17,2 C 37 % 1034,0 hPa 0,0 l/m 2 min 0 min 498 W/m 16,1 km/h (3 Bft) 91,49 %
13.05.2019 18:00 19,1 C 17,8 C 17,2 C 38 % 1034,1 hPa 0,0 l/m 2 min 0 min 473 W/m 12,9 km/h (3 Bft) 93,62 %
13.05.2019 18:02 19,1 C 18,3 C 17,2 C 38 % 1034,0 hPa 0,0 l/m 2 min 0 min 490 W/m 9,7 km/h (2 Bft) 95,74 %
13.05.2019 18:04 19,1 C 17,8 C 17,2 C 39 % 1034,0 hPa 0,0 l/m 2 min 0 min 478 W/m 12,9 km/h (3 Bft) 95,65 %
13.05.2019 18:08 19,0 C 17,8 C 17,2 C 39 % 1033,9 hPa 0,0 l/m 4 min 0 min 475 W/m 12,9 km/h (3 Bft) 95,74 %
13.05.2019 18:10 18,9 C 17,8 C 17,2 C 38 % 1034,0 hPa 0,0 l/m 2 min 0 min 434 W/m 12,9 km/h (3 Bft) 93,62 %
13.05.2019 18:12 18,9 C 17,8 C 17,2 C 38 % 1034,0 hPa 0,0 l/m 2 min 0 min 468 W/m 16,1 km/h (3 Bft) 93,62 %
13.05.2019 18:14 18,9 C 17,8 C 17,2 C 38 % 1034,0 hPa 0,0 l/m 2 min 0 min 439 W/m 6,4 km/h (2 Bft) 95,74 %
13.05.2019 18:16 18,8 C 17,8 C 17,8 C 38 % 1034,0 hPa 0,0 l/m 2 min 0 min 427 W/m 9,7 km/h (2 Bft) 93,48 %
13.05.2019 18:18 18,8 C 17,8 C 17,2 C 39 % 1033,9 hPa 0,0 l/m 2 min 0 min 424 W/m 9,7 km/h (2 Bft) 95,74 %
13.05.2019 18:20 18,8 C 17,8 C 17,2 C 39 % 1033,9 hPa 0,0 l/m 2 min 0 min 407 W/m 9,7 km/h (2 Bft) 95,74 %
13.05.2019 18:22 18,7 C 17,2 C 16,7 C 38 % 1033,9 hPa 0,0 l/m 2 min 0 min 415 W/m 19,3 km/h (3 Bft) 100,00 %
13.05.2019 18:24 18,7 C 17,2 C 16,7 C 37 % 1034,0 hPa 0,0 l/m 2 min 0 min 418 W/m 19,3 km/h (3 Bft) 97,87 %
13.05.2019 18:26 18,6 C 17,2 C 16,7 C 37 % 1033,9 hPa 0,0 l/m 2 min 0 min 414 W/m 9,7 km/h (2 Bft) 97,87 %
13.05.2019 18:28 18,5 C 17,2 C 16,7 C 37 % 1033,9 hPa 0,0 l/m 2 min 0 min 408 W/m 19,3 km/h (3 Bft) 100,00 %
13.05.2019 18:30 18,5 C 17,2 C 17,8 C 38 % 1033,8 hPa 0,0 l/m 2 min 0 min 389 W/m 16,1 km/h (3 Bft) 100,00 %
13.05.2019 18:32 18,4 C 17,2 C 18,3 C 38 % 1033,8 hPa 0,0 l/m 2 min 0 min 352 W/m 12,9 km/h (3 Bft) 100,00 %
13.05.2019 18:34 18,4 C 17,2 C 18,3 C 40 % 1033,9 hPa 0,0 l/m 2 min 0 min 379 W/m 6,4 km/h (2 Bft) 100,00 %
13.05.2019 18:36 18,4 C 17,2 C 17,8 C 39 % 1033,9 hPa 0,0 l/m 2 min 0 min 386 W/m 6,4 km/h (2 Bft) 100,00 %
13.05.2019 18:38 18,4 C 17,2 C 17,2 C 40 % 1033,8 hPa 0,0 l/m 2 min 0 min 378 W/m 12,9 km/h (3 Bft) 100,00 %
13.05.2019 18:40 18,3 C 16,7 C 16,1 C 37 % 1033,8 hPa 0,0 l/m 2 min 0 min 367 W/m 22,5 km/h (4 Bft) 100,00 %
13.05.2019 18:42 18,2 C 16,7 C 15,0 C 41 % 1033,8 hPa 0,0 l/m 2 min 0 min 365 W/m 12,9 km/h (3 Bft) 100,00 %
13.05.2019 18:44 18,1 C 16,7 C 14,4 C 39 % 1033,8 hPa 0,0 l/m 2 min 0 min 358 W/m 12,9 km/h (3 Bft) 100,00 %
13.05.2019 18:46 18,1 C 16,7 C 13,9 C 41 % 1033,8 hPa 0,0 l/m 2 min 0 min 350 W/m 6,4 km/h (2 Bft) 100,00 %
13.05.2019 18:48 17,9 C 16,7 C 13,9 C 40 % 1033,8 hPa 0,0 l/m 2 min 0 min 346 W/m 6,4 km/h (2 Bft) 100,00 %
13.05.2019 18:50 17,9 C 16,7 C 13,9 C 40 % 1033,8 hPa 0,0 l/m 2 min 0 min 336 W/m 12,9 km/h (3 Bft) 97,87 %
13.05.2019 18:52 17,8 C 16,1 C 13,9 C 42 % 1033,8 hPa 0,0 l/m 2 min 0 min 325 W/m 9,7 km/h (2 Bft) 100,00 %
13.05.2019 18:54 17,7 C 16,1 C 13,3 C 40 % 1033,8 hPa 0,0 l/m 2 min 0 min 324 W/m 16,1 km/h (3 Bft) 100,00 %
13.05.2019 18:56 17,7 C 16,1 C 13,3 C 40 % 1033,8 hPa 0,0 l/m 2 min 0 min 316 W/m 12,9 km/h (3 Bft) 100,00 %
13.05.2019 18:59 17,5 C 16,1 C 13,3 C 40 % 1033,9 hPa 0,0 l/m 3 min 0 min 310 W/m 22,5 km/h (4 Bft) 100,00 %
13.05.2019 19:00 17,4 C 15,6 C 13,3 C 40 % 1033,9 hPa 0,0 l/m 1 min 0 min 299 W/m 9,7 km/h (2 Bft) 100,00 %
13.05.2019 19:02 17,4 C 15,6 C 13,3 C 39 % 1033,8 hPa 0,0 l/m 2 min 0 min 294 W/m 25,7 km/h (4 Bft) 100,00 %
13.05.2019 19:04 17,2 C 15,6 C 13,3 C 40 % 1033,9 hPa 0,0 l/m 2 min 0 min 293 W/m 12,9 km/h (3 Bft) 100,00 %
13.05.2019 19:06 17,1 C 15,6 C 13,3 C 39 % 1033,8 hPa 0,0 l/m 2 min 0 min 284 W/m 29,0 km/h (5 Bft) 100,00 %
13.05.2019 19:08 17,0 C 15,6 C 13,3 C 40 % 1033,8 hPa 0,0 l/m 2 min 0 min 273 W/m 9,7 km/h (2 Bft) 100,00 %
13.05.2019 19:10 16,9 C 15,6 C 12,8 C 40 % 1033,7 hPa 0,0 l/m 2 min 0 min 266 W/m 6,4 km/h (2 Bft) 100,00 %
13.05.2019 19:12 16,9 C 15,6 C 12,8 C 41 % 1033,6 hPa 0,0 l/m 2 min 0 min 259 W/m 19,3 km/h (3 Bft) 100,00 %
13.05.2019 19:14 16,8 C 15,0 C 12,8 C 40 % 1033,6 hPa 0,0 l/m 2 min 0 min 221 W/m 12,9 km/h (3 Bft) 100,00 %
13.05.2019 19:16 16,7 C 15,0 C 13,3 C 41 % 1033,6 hPa 0,0 l/m 0 min 0 min 113 W/m 9,7 km/h (2 Bft) 100,00 %
13.05.2019 19:18 16,6 C 15,0 C 12,8 C 40 % 1033,6 hPa 0,0 l/m 0 min 0 min 54 W/m 16,1 km/h (3 Bft) 95,74 %
13.05.2019 19:20 16,4 C 14,4 C 12,8 C 40 % 1033,7 hPa 0,0 l/m 0 min 0 min 50 W/m 12,9 km/h (3 Bft) 97,87 %
13.05.2019 19:22 16,4 C 14,4 C 12,8 C 42 % 1033,6 hPa 0,0 l/m 0 min 0 min 48 W/m 12,9 km/h (3 Bft) 100,00 %
13.05.2019 19:24 16,3 C 14,4 C 12,8 C 42 % 1033,6 hPa 0,0 l/m 0 min 0 min 47 W/m 9,7 km/h (2 Bft) 100,00 %
13.05.2019 19:26 16,2 C 14,4 C 12,8 C 42 % 1033,6 hPa 0,0 l/m 0 min 0 min 47 W/m 9,7 km/h (2 Bft) 100,00 %
13.05.2019 19:28 16,1 C 14,4 C 12,8 C 41 % 1033,6 hPa 0,0 l/m 0 min 0 min 47 W/m 12,9 km/h (3 Bft) 100,00 %
13.05.2019 19:30 15,9 C 14,4 C 12,8 C 41 % 1033,6 hPa 0,0 l/m 0 min 0 min 46 W/m 6,4 km/h (2 Bft) 100,00 %
13.05.2019 19:32 15,9 C 14,4 C 12,8 C 42 % 1033,6 hPa 0,0 l/m 0 min 0 min 46 W/m 9,7 km/h (2 Bft) 100,00 %
13.05.2019 19:34 15,8 C 13,9 C 12,8 C 43 % 1033,7 hPa 0,0 l/m 0 min 0 min 45 W/m 12,9 km/h (3 Bft) 100,00 %
13.05.2019 19:36 15,7 C 13,9 C 12,8 C 43 % 1033,6 hPa 0,0 l/m 0 min 0 min 44 W/m 12,9 km/h (3 Bft) 100,00 %
13.05.2019 19:38 15,6 C 13,9 C 12,8 C 42 % 1033,7 hPa 0,0 l/m 0 min 0 min 43 W/m 9,7 km/h (2 Bft) 100,00 %
13.05.2019 19:40 15,5 C 13,9 C 12,8 C 43 % 1033,6 hPa 0,0 l/m 0 min 0 min 42 W/m 6,4 km/h (2 Bft) 100,00 %
13.05.2019 19:42 15,4 C 13,9 C 12,8 C 45 % 1033,6 hPa 0,0 l/m 0 min 0 min 42 W/m 9,7 km/h (2 Bft) 100,00 %
13.05.2019 19:44 15,4 C 13,9 C 12,8 C 44 % 1033,6 hPa 0,0 l/m 0 min 0 min 42 W/m 12,9 km/h (3 Bft) 100,00 %
13.05.2019 19:46 15,3 C 13,9 C 12,8 C 45 % 1033,5 hPa 0,0 l/m 0 min 0 min 40 W/m 9,7 km/h (2 Bft) 97,87 %
13.05.2019 19:48 15,3 C 13,9 C 12,8 C 44 % 1033,6 hPa 0,0 l/m 0 min 0 min 39 W/m 3,2 km/h (1 Bft) 97,87 %
13.05.2019 19:50 15,2 C 13,9 C 12,2 C 45 % 1033,5 hPa 0,0 l/m 0 min 0 min 37 W/m 9,7 km/h (2 Bft) 97,83 %
13.05.2019 19:52 15,2 C 13,9 C 12,2 C 45 % 1033,6 hPa 0,0 l/m 0 min 0 min 37 W/m 9,7 km/h (2 Bft) 100,00 %
13.05.2019 19:54 15,1 C 13,9 C 12,2 C 45 % 1033,5 hPa 0,0 l/m 0 min 0 min 34 W/m 12,9 km/h (3 Bft) 100,00 %
13.05.2019 19:56 15,0 C 13,9 C 12,2 C 45 % 1033,5 hPa 0,0 l/m 0 min 0 min 34 W/m 6,4 km/h (2 Bft) 97,87 %
13.05.2019 20:00 14,9 C 13,3 C 12,2 C 45 % 1033,5 hPa 0,0 l/m 0 min 0 min 34 W/m 6,4 km/h (2 Bft) 100,00 %
13.05.2019 20:02 14,8 C 13,3 C 12,2 C 45 % 1033,5 hPa 0,0 l/m 0 min 0 min 35 W/m 9,7 km/h (2 Bft) 93,48 %
13.05.2019 20:04 14,8 C 13,3 C 12,2 C 46 % 1033,6 hPa 0,0 l/m 0 min 0 min 35 W/m 9,7 km/h (2 Bft) 97,67 %
13.05.2019 20:06 14,7 C 13,3 C 12,2 C 46 % 1033,6 hPa 0,0 l/m 0 min 0 min 35 W/m 9,7 km/h (2 Bft) 96,55 %
13.05.2019 20:08 14,7 C 13,3 C 12,2 C 46 % 1033,5 hPa 0,0 l/m 0 min 0 min 33 W/m 9,7 km/h (2 Bft) 97,14 %
13.05.2019 20:10 14,6 C 13,3 C 12,2 C 47 % 1033,5 hPa 0,0 l/m 0 min 0 min 33 W/m 6,4 km/h (2 Bft) 97,87 %
13.05.2019 20:12 14,6 C 13,3 C 12,2 C 45 % 1033,5 hPa 0,0 l/m 0 min 0 min 26 W/m 6,4 km/h (2 Bft) 96,00 %
13.05.2019 20:14 14,6 C 13,3 C 12,2 C 46 % 1033,5 hPa 0,0 l/m 0 min 0 min 26 W/m 19,3 km/h (3 Bft) 95,74 %
13.05.2019 20:16 14,5 C 13,3 C 12,2 C 46 % 1033,5 hPa 0,0 l/m 0 min 0 min 30 W/m 6,4 km/h (2 Bft) 95,83 %
13.05.2019 20:18 14,5 C 13,3 C 12,2 C 47 % 1033,5 hPa 0,0 l/m 0 min 0 min 30 W/m 6,4 km/h (2 Bft) 89,36 %
13.05.2019 20:20 14,4 C 13,3 C 12,2 C 47 % 1033,5 hPa 0,0 l/m 0 min 0 min 29 W/m 6,4 km/h (2 Bft) 92,86 %
13.05.2019 20:22 14,4 C 13,3 C 11,7 C 47 % 1033,5 hPa 0,0 l/m 0 min 0 min 28 W/m 6,4 km/h (2 Bft) 94,00 %
13.05.2019 20:24 14,4 C 12,8 C 11,7 C 48 % 1033,5 hPa 0,0 l/m 0 min 0 min 27 W/m 6,4 km/h (2 Bft) 93,75 %
13.05.2019 20:26 14,3 C 12,8 C 11,7 C 47 % 1033,5 hPa 0,0 l/m 0 min 0 min 26 W/m 6,4 km/h (2 Bft) 93,62 %
13.05.2019 20:28 14,3 C 12,8 C 11,7 C 48 % 1033,5 hPa 0,0 l/m 0 min 0 min 25 W/m 3,2 km/h (1 Bft) 93,02 %
13.05.2019 20:30 14,3 C 12,8 C 11,7 C 48 % 1033,4 hPa 0,0 l/m 0 min 0 min 24 W/m 3,2 km/h (1 Bft) 95,74 %
13.05.2019 20:32 14,2 C 12,8 C 11,7 C 49 % 1033,5 hPa 0,0 l/m 0 min 0 min 21 W/m 3,2 km/h (1 Bft) 95,92 %
13.05.2019 20:34 14,2 C 12,8 C 11,7 C 48 % 1033,4 hPa 0,0 l/m 0 min 0 min 21 W/m 3,2 km/h (1 Bft) 95,92 %
13.05.2019 20:36 14,2 C 12,8 C 11,7 C 49 % 1033,4 hPa 0,0 l/m 0 min 0 min 18 W/m 6,4 km/h (2 Bft) 91,30 %
13.05.2019 20:38 14,2 C 12,8 C 11,7 C 48 % 1033,4 hPa 0,0 l/m 0 min 0 min 17 W/m 6,4 km/h (2 Bft) 93,62 %
13.05.2019 20:40 14,2 C 12,8 C 11,7 C 48 % 1033,4 hPa 0,0 l/m 0 min 0 min 16 W/m 3,2 km/h (1 Bft) 93,62 %
13.05.2019 20:42 14,2 C 12,8 C 11,7 C 49 % 1033,4 hPa 0,0 l/m 0 min 0 min 16 W/m 9,7 km/h (2 Bft) 95,74 %
13.05.2019 20:44 14,1 C 12,8 C 11,7 C 48 % 1033,4 hPa 0,0 l/m 0 min 0 min 13 W/m 6,4 km/h (2 Bft) 95,24 %
13.05.2019 20:46 14,0 C 12,2 C 11,7 C 49 % 1033,4 hPa 0,0 l/m 0 min 0 min 12 W/m 6,4 km/h (2 Bft) 96,00 %
13.05.2019 20:48 13,9 C 12,2 C 11,1 C 50 % 1033,3 hPa 0,0 l/m 0 min 0 min 11 W/m 6,4 km/h (2 Bft) 95,83 %
13.05.2019 20:50 13,9 C 12,2 C 11,1 C 50 % 1033,4 hPa 0,0 l/m 0 min 0 min 11 W/m 6,4 km/h (2 Bft) 95,74 %
13.05.2019 20:52 13,8 C 12,2 C 11,1 C 50 % 1033,4 hPa 0,0 l/m 0 min 0 min 11 W/m 6,4 km/h (2 Bft) 95,35 %
13.05.2019 20:54 13,8 C 12,2 C 11,1 C 49 % 1033,4 hPa 0,0 l/m 0 min 0 min 10 W/m 6,4 km/h (2 Bft) 91,84 %
13.05.2019 20:56 13,7 C 12,2 C 11,1 C 50 % 1033,4 hPa 0,0 l/m 0 min 0 min 9 W/m 3,2 km/h (1 Bft) 95,92 %
13.05.2019 20:58 13,7 C 12,2 C 11,1 C 49 % 1033,4 hPa 0,0 l/m 0 min 0 min 7 W/m 9,7 km/h (2 Bft) 95,74 %
13.05.2019 21:00 13,7 C 12,2 C 11,1 C 50 % 1033,4 hPa 0,0 l/m 0 min 0 min 7 W/m 6,4 km/h (2 Bft) 95,65 %
13.05.2019 21:02 13,6 C 11,7 C 11,1 C 50 % 1033,4 hPa 0,0 l/m 0 min 0 min 5 W/m 6,4 km/h (2 Bft) 93,02 %
13.05.2019 21:04 13,6 C 11,7 C 10,6 C 50 % 1033,4 hPa 0,0 l/m 0 min 0 min 5 W/m 3,2 km/h (1 Bft) 96,00 %
13.05.2019 21:06 13,5 C 11,7 C 10,6 C 50 % 1033,4 hPa 0,0 l/m 0 min 0 min 5 W/m 6,4 km/h (2 Bft) 97,92 %
13.05.2019 21:08 13,5 C 11,7 C 10,6 C 51 % 1033,5 hPa 0,0 l/m 0 min 0 min 5 W/m 6,4 km/h (2 Bft) 97,87 %
13.05.2019 21:10 13,4 C 11,7 C 10,6 C 51 % 1033,5 hPa 0,0 l/m 0 min 0 min 5 W/m 6,4 km/h (2 Bft) 97,87 %
13.05.2019 21:12 13,4 C 11,7 C 10,6 C 51 % 1033,6 hPa 0,0 l/m 0 min 0 min 1 W/m 6,4 km/h (2 Bft) 95,65 %
13.05.2019 21:14 13,3 C 11,7 C 10,6 C 51 % 1033,5 hPa 0,0 l/m 0 min 0 min 0 W/m 6,4 km/h (2 Bft) 97,87 %
13.05.2019 21:16 13,3 C 11,7 C 10,6 C 52 % 1033,5 hPa 0,0 l/m 0 min 0 min 0 W/m 6,4 km/h (2 Bft) 97,67 %
13.05.2019 21:18 13,2 C 11,7 C 10,6 C 52 % 1033,5 hPa 0,0 l/m 0 min 0 min 0 W/m 6,4 km/h (2 Bft) 93,48 %
13.05.2019 21:20 13,2 C 11,7 C 10,6 C 52 % 1033,5 hPa 0,0 l/m 0 min 0 min 0 W/m 3,2 km/h (1 Bft) 97,87 %
13.05.2019 21:22 13,1 C 11,7 C 10,6 C 52 % 1033,6 hPa 0,0 l/m 0 min 0 min 0 W/m 3,2 km/h (1 Bft) 97,87 %
13.05.2019 21:24 13,1 C 11,1 C 10,6 C 52 % 1033,6 hPa 0,0 l/m 0 min 0 min 0 W/m 3,2 km/h (1 Bft) 98,00 %
13.05.2019 21:26 13,0 C 11,1 C 10,0 C 52 % 1033,5 hPa 0,0 l/m 0 min 0 min 0 W/m 3,2 km/h (1 Bft) 100,00 %
13.05.2019 21:28 12,9 C 11,1 C 10,0 C 53 % 1033,6 hPa 0,0 l/m 0 min 0 min 0 W/m 6,4 km/h (2 Bft) 100,00 %
13.05.2019 21:30 12,9 C 11,1 C 10,0 C 53 % 1033,6 hPa 0,0 l/m 0 min 0 min 0 W/m 3,2 km/h (1 Bft) 100,00 %
13.05.2019 21:32 12,8 C 11,1 C 10,0 C 52 % 1033,6 hPa 0,0 l/m 0 min 0 min 0 W/m 3,2 km/h (1 Bft) 100,00 %
13.05.2019 21:34 12,8 C 11,1 C 10,0 C 53 % 1033,5 hPa 0,0 l/m 0 min 0 min 0 W/m 6,4 km/h (2 Bft) 98,00 %
13.05.2019 21:36 12,8 C 11,1 C 10,0 C 53 % 1033,6 hPa 0,0 l/m 0 min 0 min 0 W/m 3,2 km/h (1 Bft) 100,00 %
13.05.2019 21:38 12,7 C 11,1 C 10,0 C 53 % 1033,5 hPa 0,0 l/m 0 min 0 min 0 W/m 6,4 km/h (2 Bft) 97,87 %
13.05.2019 21:40 12,7 C 11,1 C 10,0 C 52 % 1033,6 hPa 0,0 l/m 0 min 0 min 0 W/m 6,4 km/h (2 Bft) 100,00 %
13.05.2019 21:42 12,6 C 11,1 C 10,0 C 53 % 1033,6 hPa 0,0 l/m 0 min 0 min 0 W/m 3,2 km/h (1 Bft) 100,00 %
13.05.2019 21:44 12,6 C 11,1 C 10,0 C 53 % 1033,6 hPa 0,0 l/m 0 min 0 min 0 W/m 6,4 km/h (2 Bft) 97,87 %
13.05.2019 21:46 12,5 C 10,6 C 10,0 C 53 % 1033,5 hPa 0,0 l/m 0 min 0 min 0 W/m 3,2 km/h (1 Bft) 97,62 %
13.05.2019 21:48 12,4 C 10,6 C 10,0 C 53 % 1033,6 hPa 0,0 l/m 0 min 0 min 0 W/m 3,2 km/h (1 Bft) 97,87 %
13.05.2019 21:50 12,4 C 10,6 C 10,0 C 53 % 1033,6 hPa 0,0 l/m 0 min 0 min 0 W/m 6,4 km/h (2 Bft) 100,00 %
13.05.2019 21:52 12,4 C 10,6 C 10,0 C 52 % 1033,6 hPa 0,0 l/m 0 min 0 min 0 W/m 3,2 km/h (1 Bft) 97,92 %
13.05.2019 21:54 12,3 C 10,6 C 9,4 C 53 % 1033,5 hPa 0,0 l/m 0 min 0 min 0 W/m 3,2 km/h (1 Bft) 97,87 %
13.05.2019 21:56 12,3 C 10,6 C 9,4 C 54 % 1033,5 hPa 0,0 l/m 0 min 0 min 0 W/m 3,2 km/h (1 Bft) 97,62 %
13.05.2019 21:58 12,2 C 10,6 C 9,4 C 54 % 1033,6 hPa 0,0 l/m 0 min 0 min 0 W/m 3,2 km/h (1 Bft) 98,00 %
13.05.2019 22:00 12,2 C 10,6 C 9,4 C 54 % 1033,7 hPa 0,0 l/m 0 min 0 min 0 W/m 3,2 km/h (1 Bft) 97,92 %
13.05.2019 22:02 12,2 C 10,6 C 9,4 C 53 % 1033,7 hPa 0,0 l/m 0 min 0 min 0 W/m 3,2 km/h (1 Bft) 97,87 %
13.05.2019 22:04 12,1 C 10,0 C 9,4 C 54 % 1033,7 hPa 0,0 l/m 0 min 0 min 0 W/m 3,2 km/h (1 Bft) 95,74 %
13.05.2019 22:06 12,1 C 10,0 C 9,4 C 54 % 1033,6 hPa 0,0 l/m 0 min 0 min 0 W/m 3,2 km/h (1 Bft) 98,15 %
13.05.2019 22:08 12,1 C 10,0 C 9,4 C 55 % 1033,6 hPa 0,0 l/m 0 min 0 min 0 W/m 3,2 km/h (1 Bft) 97,14 %
13.05.2019 22:10 12,0 C 10,0 C 8,9 C 55 % 1033,6 hPa 0,0 l/m 0 min 0 min 0 W/m 3,2 km/h (1 Bft) 97,87 %
13.05.2019 22:12 11,9 C 10,0 C 8,9 C 55 % 1033,6 hPa 0,0 l/m 0 min 0 min 0 W/m 3,2 km/h (1 Bft) 96,00 %
13.05.2019 22:14 11,9 C 10,0 C 8,9 C 55 % 1033,6 hPa 0,0 l/m 0 min 0 min 0 W/m 6,4 km/h (2 Bft) 95,74 %
13.05.2019 22:16 11,8 C 10,0 C 8,9 C 55 % 1033,7 hPa 0,0 l/m 0 min 0 min 0 W/m 6,4 km/h (2 Bft) 97,92 %
13.05.2019 22:18 11,8 C 10,0 C 8,9 C 55 % 1033,7 hPa 0,0 l/m 0 min 0 min 0 W/m 6,4 km/h (2 Bft) 95,74 %
13.05.2019 22:20 11,7 C 10,0 C 8,9 C 55 % 1033,7 hPa 0,0 l/m 0 min 0 min 0 W/m 3,2 km/h (1 Bft) 97,62 %
13.05.2019 22:22 11,7 C 10,0 C 8,9 C 55 % 1033,6 hPa 0,0 l/m 0 min 0 min 0 W/m 3,2 km/h (1 Bft) 98,00 %
13.05.2019 22:24 11,6 C 10,0 C 8,9 C 55 % 1033,7 hPa 0,0 l/m 0 min 0 min 0 W/m 3,2 km/h (1 Bft) 100,00 %
13.05.2019 22:26 11,6 C 10,0 C 8,9 C 55 % 1033,7 hPa 0,0 l/m 0 min 0 min 0 W/m 3,2 km/h (1 Bft) 100,00 %
13.05.2019 22:28 11,5 C 10,0 C 8,9 C 55 % 1033,7 hPa 0,0 l/m 0 min 0 min 0 W/m 3,2 km/h (1 Bft) 100,00 %
13.05.2019 22:30 11,5 C 10,0 C 8,9 C 55 % 1033,7 hPa 0,0 l/m 0 min 0 min 0 W/m 6,4 km/h (2 Bft) 100,00 %
13.05.2019 22:32 11,4 C 10,0 C 8,9 C 56 % 1033,7 hPa 0,0 l/m 0 min 0 min 0 W/m 9,7 km/h (2 Bft) 100,00 %
13.05.2019 22:34 11,4 C 10,0 C 8,9 C 56 % 1033,7 hPa 0,0 l/m 0 min 0 min 0 W/m 3,2 km/h (1 Bft) 97,62 %
13.05.2019 22:36 11,3 C 10,0 C 8,9 C 56 % 1033,7 hPa 0,0 l/m 0 min 0 min 0 W/m 6,4 km/h (2 Bft) 100,00 %
13.05.2019 22:38 11,3 C 10,0 C 8,9 C 55 % 1033,7 hPa 0,0 l/m 0 min 0 min 0 W/m 6,4 km/h (2 Bft) 97,87 %
13.05.2019 22:40 11,2 C 10,0 C 8,9 C 55 % 1033,8 hPa 0,0 l/m 0 min 0 min 0 W/m 3,2 km/h (1 Bft) 100,00 %
13.05.2019 22:42 11,2 C 9,4 C 8,9 C 56 % 1033,7 hPa 0,0 l/m 0 min 0 min 0 W/m 6,4 km/h (2 Bft) 100,00 %
13.05.2019 22:44 11,2 C 9,4 C 8,9 C 56 % 1033,8 hPa 0,0 l/m 0 min 0 min 0 W/m 3,2 km/h (1 Bft) 100,00 %
13.05.2019 22:46 11,1 C 9,4 C 8,9 C 56 % 1033,8 hPa 0,0 l/m 0 min 0 min 0 W/m 3,2 km/h (1 Bft) 100,00 %
13.05.2019 22:48 11,1 C 9,4 C 8,9 C 56 % 1033,9 hPa 0,0 l/m 0 min 0 min 0 W/m 6,4 km/h (2 Bft) 100,00 %
13.05.2019 22:50 11,0 C 9,4 C 8,9 C 56 % 1033,8 hPa 0,0 l/m 0 min 0 min 0 W/m 6,4 km/h (2 Bft) 100,00 %
13.05.2019 22:52 11,0 C 9,4 C 8,9 C 57 % 1033,8 hPa 0,0 l/m 0 min 0 min 0 W/m 3,2 km/h (1 Bft) 93,62 %
13.05.2019 22:54 10,9 C 9,4 C 8,9 C 56 % 1033,8 hPa 0,0 l/m 0 min 0 min 0 W/m 6,4 km/h (2 Bft) 100,00 %
13.05.2019 22:56 10,9 C 9,4 C 8,9 C 57 % 1033,9 hPa 0,0 l/m 0 min 0 min 0 W/m 6,4 km/h (2 Bft) 100,00 %
13.05.2019 22:58 10,9 C 9,4 C 8,9 C 57 % 1034,0 hPa 0,0 l/m 0 min 0 min 0 W/m 3,2 km/h (1 Bft) 97,87 %
13.05.2019 23:00 10,8 C 9,4 C 8,9 C 57 % 1034,0 hPa 0,0 l/m 0 min 0 min 0 W/m 6,4 km/h (2 Bft) 100,00 %
13.05.2019 23:02 10,8 C 9,4 C 8,9 C 57 % 1034,0 hPa 0,0 l/m 0 min 0 min 0 W/m 6,4 km/h (2 Bft) 100,00 %
13.05.2019 23:04 10,7 C 9,4 C 8,9 C 57 % 1034,0 hPa 0,0 l/m 0 min 0 min 0 W/m 6,4 km/h (2 Bft) 97,62 %
13.05.2019 23:06 10,7 C 9,4 C 8,9 C 57 % 1033,8 hPa 0,0 l/m 0 min 0 min 0 W/m 6,4 km/h (2 Bft) 98,31 %
13.05.2019 23:08 10,7 C 9,4 C 8,9 C 56 % 1033,9 hPa 0,0 l/m 0 min 0 min 0 W/m 9,7 km/h (2 Bft) 97,87 %
13.05.2019 23:10 10,6 C 9,4 C 8,9 C 57 % 1033,8 hPa 0,0 l/m 0 min 0 min 0 W/m 6,4 km/h (2 Bft) 100,00 %
13.05.2019 23:12 10,6 C 9,4 C 8,9 C 57 % 1033,8 hPa 0,0 l/m 0 min 0 min 0 W/m 6,4 km/h (2 Bft) 100,00 %
13.05.2019 23:14 10,6 C 9,4 C 8,9 C 57 % 1033,8 hPa 0,0 l/m 0 min 0 min 0 W/m 6,4 km/h (2 Bft) 100,00 %
13.05.2019 23:16 10,6 C 9,4 C 8,9 C 57 % 1033,8 hPa 0,0 l/m 0 min 0 min 0 W/m 3,2 km/h (1 Bft) 100,00 %
13.05.2019 23:18 10,5 C 9,4 C 8,3 C 57 % 1033,9 hPa 0,0 l/m 0 min 0 min 0 W/m 6,4 km/h (2 Bft) 97,92 %
13.05.2019 23:20 10,5 C 9,4 C 8,3 C 57 % 1033,8 hPa 0,0 l/m 0 min 0 min 0 W/m 6,4 km/h (2 Bft) 100,00 %
13.05.2019 23:22 10,4 C 8,9 C 8,3 C 57 % 1034,0 hPa 0,0 l/m 0 min 0 min 0 W/m 6,4 km/h (2 Bft) 100,00 %
13.05.2019 23:24 10,4 C 9,4 C 8,3 C 57 % 1033,9 hPa 0,0 l/m 0 min 0 min 0 W/m 6,4 km/h (2 Bft) 95,74 %
13.05.2019 23:26 10,4 C 9,4 C 8,3 C 57 % 1033,9 hPa 0,0 l/m 0 min 0 min 0 W/m 6,4 km/h (2 Bft) 98,15 %
13.05.2019 23:28 10,4 C 9,4 C 8,3 C 57 % 1033,9 hPa 0,0 l/m 0 min 0 min 0 W/m 3,2 km/h (1 Bft) 96,00 %
13.05.2019 23:30 10,3 C 8,9 C 8,3 C 57 % 1033,9 hPa 0,0 l/m 0 min 0 min 0 W/m 3,2 km/h (1 Bft) 97,92 %
13.05.2019 23:32 10,3 C 8,9 C 8,3 C 57 % 1033,9 hPa 0,0 l/m 0 min 0 min 0 W/m 6,4 km/h (2 Bft) 97,87 %
13.05.2019 23:34 10,3 C 8,9 C 8,3 C 58 % 1034,0 hPa 0,0 l/m 0 min 0 min 0 W/m 3,2 km/h (1 Bft) 97,14 %
13.05.2019 23:36 10,3 C 8,9 C 8,3 C 58 % 1034,0 hPa 0,0 l/m 0 min 0 min 0 W/m 9,7 km/h (2 Bft) 96,36 %
13.05.2019 23:38 10,2 C 8,9 C 8,3 C 58 % 1034,0 hPa 0,0 l/m 0 min 0 min 0 W/m 9,7 km/h (2 Bft) 97,83 %
13.05.2019 23:40 10,2 C 8,9 C 8,3 C 58 % 1034,0 hPa 0,0 l/m 0 min 0 min 0 W/m 3,2 km/h (1 Bft) 97,87 %
13.05.2019 23:42 10,2 C 8,9 C 7,8 C 58 % 1033,9 hPa 0,0 l/m 0 min 0 min 0 W/m 3,2 km/h (1 Bft) 96,00 %
13.05.2019 23:44 10,1 C 8,3 C 7,8 C 58 % 1033,9 hPa 0,0 l/m 0 min 0 min 0 W/m 9,7 km/h (2 Bft) 92,00 %
13.05.2019 23:46 10,1 C 8,3 C 7,8 C 58 % 1033,9 hPa 0,0 l/m 0 min 0 min 0 W/m 6,4 km/h (2 Bft) 95,74 %
13.05.2019 23:48 10,1 C 8,9 C 7,8 C 58 % 1033,9 hPa 0,0 l/m 0 min 0 min 0 W/m 6,4 km/h (2 Bft) 93,48 %
13.05.2019 23:50 10,0 C 8,3 C 7,8 C 58 % 1034,0 hPa 0,0 l/m 0 min 0 min 0 W/m 6,4 km/h (2 Bft) 94,59 %
13.05.2019 23:52 10,0 C 8,3 C 7,8 C 58 % 1034,0 hPa 0,0 l/m 0 min 0 min 0 W/m 3,2 km/h (1 Bft) 95,74 %
13.05.2019 23:54 9,9 C 8,3 C 7,8 C 58 % 1034,0 hPa 0,0 l/m 0 min 0 min 0 W/m 6,4 km/h (2 Bft) 96,30 %
13.05.2019 23:56 9,9 C 8,3 C 7,8 C 58 % 1034,1 hPa 0,0 l/m 0 min 0 min 0 W/m 6,4 km/h (2 Bft) 94,00 %
13.05.2019 23:58 9,9 C 8,9 C 8,3 C 59 % 1034,0 hPa 0,0 l/m 0 min 0 min 0 W/m 6,4 km/h (2 Bft) 94,44 %
_ Min-Zeit 06:28 05:36 05:58 17:10 20:48 - - - - 01:26 05:14
Minimum _ 3,2 C 1,7 C 1,1 C 35 % 1033,3 hPa - - - - 0,0 km/h (0 Bft) 89,36 %
_ Max-Zeit 16:56 12:34 13:02 08:10 09:18 00:00 12:08 00:00 13:36 19:06 00:44
Maximum _ 19,8 C 25,0 C 28,9 C 94 % 1037,4 hPa 0,0 l/m 4 min 0 min 953 W/m 29,0 km/h
W-SW (5 Bft)
100,00 %
Durchschnitt _ 11,9 C 12,9 C 12,7 C 62 % 1035,6 hPa #0,0 l/m #10:42 h #0 min. 508 W/m 7,5 km/h (2 Bft) 97,34 %
© 2019 W. Hausmann